GFSWCAN_prec_radar_000.txt.gz
Reflectivity
12 -8 -16 -20 -20 -20 -20 -20 -20 -20 -20 -20 -20 -20 -20 -20 -20 -20 -20 -20 -20 -14 -20 -20 -20 -20 -20 -20 -20 -20 -20 -20 -20 -20 -20 -20 -20 -20 -20 -20 -20 -20 -20 -20 -20 -16 -18 -20 3 13 -9 -20 -15 -20
17 -3 16 -9 -20 -20 -20 -20 -20 -20 -20 -20 -20 -20 -20 -20 -20 -20 -20 -20 -20 -20 -20 -20 -20 -20 -20 -20 -20 -20 -20 -20 -20 -20 -20 -20 -20 -16 -20 -20 -20 -20 -20 -20 -20 -20 -20 -9 3 -20 -6 -18 -20 -20
25 15 0 7 -7 -20 -6 -8 -19 -18 -20 -20 -20 -20 -20 -20 -20 -20 -20 -20 -20 8 -20 -20 -20 -20 -20 -20 -20 -20 -20 11 -20 -20 -20 -6 -5 -13 -12 9 21 13 -18 -20 -13 -20 -20 -20 -20 -20 -20 -20 -20 -18
31 30 21 11 18 -16 -4 10 -5 9 10 5 -20 -20 -20 -20 -20 -20 -20 -20 -20 -7 9 -20 -20 -20 -20 -20 -20 -20 -15 7 -20 -0 19 27 33 23 20 -5 -8 -10 12 5 -20 -20 -20 -20 -20 -19 -10 -20 -18 -7
8 25 26 27 29 29 11 -7 -20 -3 6 12 5 -19 -20 -20 1 -15 -20 -20 -20 -20 -4 -20 -20 -20 -8 -15 -20 -20 -20 -8 11 6 6 -14 -20 -8 -9 -18 5 -2 -16 -3 -20 -10 4 -12 -9 -9 -11 8 22 35
-20 -6 21 12 6 21 26 24 -20 8 12 -20 8 2 -20 -20 -20 -20 -20 -20 -20 -20 5 -15 -20 -20 -20 -20 -20 -20 -20 -20 -19 -20 -5 -20 -20 -15 23 15 -6 -11 -19 -15 15 18 14 18 -20 -6 -15 27 6 -20
-20 6 7 12 9 3 15 8 -5 -1 12 1 -6 -20 -20 -20 -20 -20 7 -19 -20 -19 4 -4 -13 -20 -20 -20 -20 -20 -20 -20 -20 -16 -16 -4 2 23 20 8 -20 -20 -20 10 26 17 15 -19 -7 12 20 17 3 -4
-20 -16 -16 -2 2 -17 -20 -20 -17 -20 -3 10 -2 22 23 26 22 26 12 10 18 23 27 27 14 14 -20 -7 -5 -20 -20 -19 -20 -20 -20 -14 -15 13 16 -19 -20 -20 1 -20 -16 -18 -20 4 -7 -15 11 22 22 11
-20 -20 -19 -12 -5 -7 -20 -2 7 -11 10 13 13 10 14 13 20 12 19 8 19 20 38 22 -5 -20 -7 -9 2 17 -16 -20 -20 -20 -20 -20 -20 4 -20 -20 -20 -20 -20 -19 -20 -18 -16 4 13 16 -15 -18 -20 -20
-20 -20 -20 -20 -20 -20 -20 -12 8 -7 3 18 6 -12 -2 3 17 12 12 26 34 31 15 12 -5 -8 -7 10 -1 -10 25 27 5 -20 -20 -20 -18 -20 -20 -20 -20 -20 -20 -20 -20 15 10 -1 -20 -20 -20 -20 -20 -20
-20 -20 -20 -20 -20 -20 -20 -20 -14 -5 -1 -1 -1 -11 1 13 7 -3 7 14 -1 -1 7 -3 -10 -15 -15 -13 16 25 9 -1 -20 -20 -20 -20 -20 -20 -20 -20 -20 -20 -10 -20 -20 -20 -20 -19 -20 -20 -20 -20 -20 -20
-20 -20 -20 -20 -20 -20 -20 -16 10 -10 -2 6 -4 12 8 -1 -10 -20 3 16 -16 -20 -20 -20 -18 -10 11 2 19 26 -14 -15 -19 -20 -9 -17 -20 -20 -20 -20 -20 -15 -13 -20 -14 -20 -8 -2 9 -9 -20 -20 -20 -20
-20 -20 -20 -20 -20 -20 -20 6 -15 -20 -18 -12 -9 6 6 14 3 -19 -20 -10 -20 -12 0 -15 -5 11 23 19 4 -16 -20 -20 -20 -20 -20 -20 -20 -20 -20 -20 -17 -19 -18 12 8 12 9 3 -19 -20 -20 -20 -20 -20
-20 -19 -20 -20 -20 -20 -20 -12 -12 -20 -20 -20 -20 -20 -20 -20 -20 -20 -20 -20 -18 -14 15 -3 -2 -20 -20 -20 -20 -20 -20 -20 -20 -20 -20 -20 -20 -20 -20 -20 -20 -20 -20 -20 -20 -20 -20 -20 -20 -20 -20 -20 -20 -20
-20 10 -1 -20 -20 -20 -20 -20 5 -19 -20 -20 -20 -20 -20 -20 -20 -20 -15 -20 -14 -19 -20 -17 -4 -18 -20 -20 -20 -20 -20 -20 -20 -20 -20 -20 -20 -20 -20 -20 -20 -20 -20 -20 -20 -20 -20 -20 -20 -20 -20 -20 -20 -20
0 -0 9 22 10 -20 -20 0 -16 -20 -20 -20 -20 -20 -20 -20 -20 -20 -20 -20 -20 -20 -20 -20 -20 -20 -20 -20 -20 -20 -20 -20 -20 -20 -20 -20 -20 -20 -20 -20 -20 -20 -20 -20 -20 -20 -20 -20 -20 -20 -20 -20 -4 -20
-8 3 19 16 22 5 -14 -19 -20 -20 -20 -20 -20 -20 -20 -20 -20 -20 -20 -20 -20 -20 -20 -20 -20 -20 -20 -20 -20 -20 -20 -20 -20 -20 -20 -20 -20 -20 -20 -20 -20 -20 -20 -20 -20 -20 -20 -20 -20 -20 -20 9 -20 -20
7 3 -8 7 -14 -18 -20 -20 -20 -20 -20 -20 -20 -20 -20 -20 -20 -20 -20 -20 -18 -19 -20 -20 -20 -20 -20 -20 -20 -20 -20 -20 -20 -20 -20 -20 -20 -20 -20 -20 -20 -20 -20 -20 -20 -20 -20 -20 -20 -20 -20 -20 -20 -20
-20 -9 -15 -20 -20 -20 -20 -20 -20 -20 -20 -20 -20 -20 -20 -20 -20 -20 -20 -20 -3 -8 -20 -20 -20 -20 -20 -20 -20 -20 -20 -20 -20 -20 -20 -20 -20 -20 -20 -20 -20 -20 -20 -20 -20 -20 -20 -20 -20 -16 -11 -20 -20 -20
8 -6 10 8 -20 -16 -20 -20 -20 -20 -20 -20 -20 -20 -20 -20 -20 -20 -20 -20 -17 -11 -6 -20 -20 -20 -20 -20 -20 -20 -20 -20 -20 -20 -20 -20 -20 -20 -20 -20 -20 -20 -20 -20 -20 -20 -20 -20 -20 -20 -20 -10 -20 -20
2 23 21 -19 -20 -20 -20 -20 -20 -20 -20 -20 -20 -20 -20 -20 -20 -20 -20 -20 -20 -20 -20 -20 -20 -20 -20 -20 -20 -20 -20 -20 -20 -20 -13 -20 -20 -20 -20 -20 -20 -20 -20 -20 -20 -20 -20 -16 0 -3 -20 -11 -5 19
11 18 -4 -8 -20 -20 -20 -20 -20 -20 -20 -20 -20 -20 -20 -20 -20 -20 -20 -20 -20 -20 -20 -20 -20 -20 -20 -20 -20 -20 -20 -20 -20 -20 -20 -20 -20 -20 -20 -20 -20 -20 -20 -20 -20 -18 -19 -2 14 13 11 -4 6 7
-20 -20 -20 -20 -20 -20 -20 -20 -20 -20 -20 -20 -20 -20 -20 -20 -20 -20 -20 -20 -20 -20 -20 -20 -20 -20 -20 -20 -20 -20 -20 -20 -20 -20 -20 -20 -20 -20 -20 -20 -20 -20 -20 -20 -20 -8 1 10 14 17 -5 8 -19 -20
-19 -7 -18 -20 -20 -20 -20 -17 -20 -20 -20 -20 -20 -20 -20 -20 -20 -20 -20 -20 -20 -20 -20 -20 -20 -20 -20 -20 -20 -20 -20 -20 -20 -20 -20 -20 -20 -20 -20 -20 -20 -20 -20 -15 -20 -13 -10 -18 -20 -20 1 0 3 6
-20 -20 -20 -20 -20 -20 -20 -20 -20 -20 -20 -20 -20 -20 -20 -20 -20 -20 -20 -20 -20 -20 -20 -20 -20 -20 -20 -20 -20 -20 -20 -20 -20 -20 -20 -20 -20 -20 -20 -20 -20 -20 -20 -12 2 -8 -13 4 -19 -3 -2 -19 -20 -7
-20 -20 -20 -20 -20 -20 -20 -20 -20 -20 -20 -20 -20 -20 -20 -20 -20 -20 -20 -20 -20 -20 -20 -20 -20 -20 -20 -20 -20 -20 -20 -20 -20 -20 -20 -20 -20 -20 -20 -20 -20 -20 -20 -15 -17 -20 -17 -20 -20 -20 -20 -20 -20 -20
-20 -20 -20 -20 -20 -20 -20 -20 -20 -20 -20 -20 -20 -20 -20 -20 -20 -20 -20 -20 -20 -20 -20 -20 -20 -20 -20 -20 -20 -20 -20 -20 -20 -20 -20 -20 -20 -20 -20 -20 -19 -20 -9 -0 -3 -20 -17 -10 -20 -20 -20 -20 -20 -20
-20 -20 -20 -20 -20 -20 -20 -20 -20 -20 -20 -20 -20 -20 -20 -20 -20 -20 -20 -20 -20 -20 -20 -20 -20 -20 -20 -20 -20 -20 -20 -20 -20 -20 -20 -20 -20 -20 -20 -20 -18 -17 -20 -19 -20 -19 -20 -13 8 2 -20 -20 -20 -20
-20 -20 -20 -20 -3 -1 -16 -20 -20 -20 -20 -20 -20 -20 -20 -20 -20 -20 -20 -20 -20 -20 -20 -20 -20 -20 -20 -20 -20 -20 -19 -20 -20 -20 -20 -20 -20 -20 -20 -20 -20 -17 -17 -9 7 -7 2 13 6 -17 -1 6 -10 4
-20 2 5 -4 -20 -20 -20 -20 -20 -20 -20 -16 -16 -20 -20 -20 -20 -20 -20 -20 -20 -20 -20 -20 -20 -20 -20 -19 -20 -20 -20 -20 -20 -7 -12 -20 -20 -20 -20 -20 -20 -20 -9 -12 -11 -13 -20 -20 -20 -18 11 16 19 16
-20 -20 -20 -20 -20 -20 -20 -20 -20 -20 -20 -20 -20 -20 -20 -20 -20 -20 -20 -20 -20 -20 -20 -20 -20 -20 -20 -20 -20 -20 -20 -20 -19 -14 -18 -20 -20 -20 -20 -20 -20 -20 -20 -20 -20 -20 -20 -20 -20 -16 8 14 14 14
-20 -20 -20 -20 4 -20 13 -15 5 -8 -20 -20 -20 -20 -20 -20 -20 -19 -20 -20 -20 -20 -18 -12 -3 -10 -20 -20 -20 -20 -20 -20 -20 -20 -20 -20 -20 -20 -20 -20 -20 -20 -20 -20 -20 -20 -20 -20 -20 -20 -20 -19 -6 -2
-20 -20 -20 -20 -20 -20 -20 -20 -20 -20 -20 -20 -20 -20 -20 -20 13 9 -15 -20 -17 -10 -19 -4 5 3 -1 -7 -12 -18 -8 -19 -20 -20 -20 -20 -20 -20 -20 -20 -20 -20 -20 -20 -20 -20 -20 -20 -20 -20 -20 -20 -20 -20

GFSWCAN_prec_radar_003.txt.gz
Reflectivity
22 9 6 4 -20 -20 -20 -20 -20 -20 -20 -20 -20 -20 -20 -20 -20 -20 -20 -20 -20 -14 -20 -20 -20 -20 -20 -20 -20 -20 -20 -20 -20 -20 -20 -20 -20 -20 -20 -20 -20 -20 -6 -20 -20 -18 -20 -20 -9 -8 -3 8 -7 -20
34 26 12 -1 -20 -20 -20 -20 -20 -20 -20 -20 -20 -20 -20 -20 -20 -20 -20 -20 -20 -20 -20 -20 -20 -20 -20 -20 -20 -20 -20 -20 -20 -20 -20 -20 -20 -20 -20 -7 -20 -20 -20 -20 -20 -20 -18 4 11 -1 -0 8 -20 -20
26 27 27 4 -16 -20 -20 -20 -20 -20 -20 -20 -20 -20 -20 -20 -20 -20 -20 -20 -20 2 -20 -20 -20 -20 -20 -20 -20 -20 -20 -20 -20 -20 -20 -20 -20 -15 -11 0 9 23 -17 -17 9 12 -8 -20 -15 2 -11 -20 -20 20
26 24 25 26 -15 -14 -17 -19 -4 10 -2 -20 -20 -20 -20 -20 -20 -20 -20 -20 -20 -14 5 -20 -20 -20 -20 -20 -20 -20 -20 -20 -20 -20 -4 9 23 10 25 -7 15 -2 -7 27 23 -12 -19 -20 -20 23 25 33 3 7
28 27 31 27 19 11 -16 11 11 6 5 12 11 -6 -20 -20 -20 -20 -20 -20 -20 -20 -20 -20 -20 -20 -20 -20 -20 -20 -20 -20 -20 18 8 9 -5 -16 -10 20 26 -14 -16 3 8 3 16 -4 13 38 32 5 -12 -11
21 23 27 23 25 23 23 3 -14 -20 -5 10 7 10 -6 -20 -20 -20 -20 -20 -20 -20 -16 6 -20 -20 -20 -20 -20 -20 -20 -20 -20 -20 -6 -20 -20 -19 18 3 -20 -17 -6 17 8 6 18 21 29 15 -19 -20 -1 -0
9 6 30 30 27 29 28 24 10 -8 -12 -15 0 -6 -20 -20 -20 -20 -19 -20 -20 -20 1 -9 -20 -20 -20 -20 -20 -20 -20 -20 -20 -20 -17 -20 -20 20 -15 3 -18 -11 8 -15 -20 -18 -20 -20 -20 -20 -17 -20 -20 -18
6 2 -1 1 23 22 18 22 26 24 18 19 15 15 3 26 16 3 -13 -5 -9 -20 -19 -18 1 -13 -20 -11 -14 -20 -20 -19 -20 -14 -20 -20 -20 -20 9 -19 -20 -20 -20 -20 -20 -20 -20 -20 -20 -20 -17 -20 -20 -20
-11 3 -14 -20 -11 7 13 19 14 29 21 25 25 31 25 14 7 3 10 32 16 29 34 27 13 6 1 -20 -20 -18 -20 -20 -20 -20 -20 -20 -20 -4 -15 -20 -20 -20 -20 -20 -20 -20 -20 -15 -19 -20 -20 -20 -20 -20
-20 -20 -19 -20 -20 -20 -20 -9 15 15 3 12 9 23 29 29 34 36 32 24 22 34 22 23 9 16 19 21 22 -3 3 22 -14 -16 -20 -20 -19 -20 -20 -20 -20 -20 -20 -20 -20 -20 -20 -20 -20 -20 -20 -20 -20 -18
1 -19 -17 -16 -17 -14 5 -4 6 13 15 -15 -5 6 15 14 10 26 38 5 -13 5 3 16 7 -2 -11 -0 12 22 13 -5 -4 -20 -20 -20 -20 -20 -20 -20 -20 -20 -20 -20 -20 -20 -20 -19 -8 -12 -20 -20 -20 -20
-0 5 -5 -20 -20 -20 -11 6 12 1 -20 -10 -16 -3 -20 -16 -4 -2 6 8 -15 -14 -20 -20 -20 7 20 15 16 26 -5 -16 -20 -20 -20 -18 -20 -20 -20 -20 -20 -20 -20 -20 -19 -8 -12 -9 -7 -20 -20 -20 -20 -20
-20 -7 -0 -15 -20 -20 -20 -19 9 2 -20 -20 -20 -20 -20 -6 -20 -16 -20 -18 -20 -20 -6 -18 -7 11 25 5 8 -12 -20 -20 -19 -20 -20 -20 -20 -20 -20 -20 -20 -20 -20 -20 -20 -20 -20 -20 -20 -20 -20 -20 -20 -20
-20 -20 -20 -14 -20 -20 -7 -20 -20 -19 -20 -20 -20 -20 -20 -20 -20 -20 -20 -20 -6 -20 -8 -16 -17 -20 -19 -11 -20 -20 -20 -20 -20 -20 -20 -20 -20 -20 -20 -20 -20 -20 -20 -20 -20 -20 -20 -20 -20 -20 -20 -20 -20 -20
-18 -20 -20 -20 -20 -20 -20 -20 -20 -20 -20 -20 -20 -20 -20 -20 -20 -20 -17 -19 -18 -13 -7 19 7 -19 -20 -20 -20 -20 -20 -20 -20 -20 -20 -20 -20 -20 -20 -20 -20 -20 -20 -20 -20 -20 -20 -20 -20 -20 -20 -20 -20 -20
-9 9 -19 -20 -20 -20 -20 -20 -20 -20 -20 -20 -20 -20 -20 -20 -20 -20 -20 -8 -3 -2 -18 -20 -20 -20 -20 -20 -20 -20 -20 -20 -20 -20 -20 -20 -20 -20 -20 -20 -20 -20 -20 -20 -20 -20 -20 -20 -20 -20 -20 -20 -20 -20
-3 -5 -12 5 -15 -20 -20 -20 -20 -19 -20 -20 -20 -8 -20 -20 -20 -20 -20 -20 -20 -20 -20 -20 -20 -20 -20 -20 -20 -20 -20 -20 -20 -20 -20 -20 -20 -20 -20 -20 -20 -20 -20 -20 -20 -20 -20 -20 -20 -20 -20 -20 -20 -20
-17 -19 8 19 3 -10 -20 -18 -20 -20 -20 -20 -20 -20 -20 -20 -20 -20 -20 -20 -18 -20 -20 -20 -20 -20 -20 -20 -20 -20 -20 -20 -20 -20 -20 -20 -20 -20 -20 -20 -20 -20 -20 -20 -20 -20 -20 -20 -20 -20 -20 -20 -20 -20
-18 -2 11 17 -6 -20 -20 -20 -20 -20 -20 -20 -20 -20 -20 -20 -20 -20 -20 -20 -20 -20 -20 -20 -20 -20 -20 -20 -20 -20 -20 -20 -20 -20 -20 -20 -20 -20 -20 -20 -20 -20 -20 -20 -20 -20 -20 -20 -20 -20 -20 -20 -20 -20
17 11 11 -2 -20 -20 -20 -20 -20 -20 -20 -20 -20 -20 -20 -20 -20 -20 -20 -20 -20 -20 -10 -15 -20 -20 -20 -20 -20 -20 -20 -20 -20 -20 -20 -20 -20 -20 -20 -20 -20 -20 -20 -20 -20 -20 -20 -20 -20 -20 -17 -8 -3 -19
13 12 -1 -13 -20 -20 -20 -20 -20 -20 -20 -20 -20 -20 -20 -20 -20 -20 -20 -20 -20 -20 -20 -20 -20 -20 -20 -20 -20 -20 -20 -20 -20 -20 -20 -20 -20 -20 -20 -20 -20 -20 -20 -20 -20 -20 -20 -20 -20 -20 -11 -9 1 8
23 12 7 1 -18 -20 -20 -20 -20 -20 -20 -20 -20 -20 -20 -20 -20 -20 -20 -20 -20 -20 -20 -20 -20 -20 -20 -20 -20 -20 -20 -20 -20 -20 -20 -20 -20 -20 -20 -20 -20 -20 -20 -20 -20 -20 -20 -20 -20 -20 -18 -2 5 -20
3 -18 -20 -20 -20 -20 -20 -20 -20 -20 -20 -20 -20 -20 -20 -20 -20 -20 -20 -20 -20 -20 -20 -20 -20 -20 -20 -20 -20 -20 -20 -20 -20 -20 -20 -20 -20 -20 -20 -20 -20 -20 -20 -20 -20 -20 -20 -16 -14 -20 -20 -19 -15 -16
-15 -12 -20 -20 -20 -20 -20 -17 -20 -20 -20 -20 -20 -20 -20 -20 -20 -20 -20 -20 -20 -20 -20 -20 -20 -20 -20 -20 -20 -20 -20 -20 -20 -20 -20 -20 -20 -20 -20 -20 -20 -20 -20 -20 -20 -20 -16 -14 12 -18 -20 -19 -10 -17
-1 -9 -20 -20 -20 -20 -20 -20 -20 -20 -20 -20 -20 -20 -20 -20 -20 -20 -20 -20 -20 -20 -20 -20 -20 -20 -20 -20 -20 -20 -20 -20 -20 -20 -20 -20 -20 -20 -20 -20 -20 -20 -20 -20 -20 -20 -19 -20 -20 -17 -20 -20 -20 -20
-20 -20 -20 -20 -20 -20 -20 -20 -20 -20 -20 -20 -20 -20 -20 -20 -20 -20 -20 -20 -20 -20 -20 -20 -20 -20 -20 -20 -20 -20 -20 -20 -20 -20 -20 -20 -20 -20 -20 -20 -20 -20 -20 -20 -18 -18 -19 -20 -20 -17 -20 -7 -6 -20
-20 -20 -20 -20 -20 -20 -20 -20 -20 -20 -20 -20 -20 -20 -20 -20 -20 -20 -20 -20 -20 -20 -20 -20 -20 -20 -20 -20 -20 -20 -20 -20 -20 -20 -20 -20 -20 -20 -20 -20 -20 -20 -20 -15 -20 -20 -20 -20 -20 -20 -17 -20 -20 -20
-20 -20 -20 -20 -20 -20 -20 -20 -20 -20 -20 -20 -20 -20 -20 -20 -20 -20 -20 -20 -20 -20 -20 -20 -20 -20 -20 -20 -20 -20 -20 -20 -20 -20 -20 -20 -20 -20 -20 -20 -20 -20 -11 -20 -20 -18 -15 -15 -15 -19 -15 -3 -20 -19
-20 -20 -20 -20 -20 -20 -20 -20 -20 -20 -20 -20 -20 -20 -20 -20 -20 -20 -20 -20 -20 -20 -20 -20 -20 -20 -20 -20 -20 -20 -20 -20 -20 -20 -20 -20 -20 -20 -20 -20 -20 -20 -20 -20 11 -14 -20 -19 -20 -20 -20 -17 -5 9
-20 -20 -12 -0 -2 -7 -20 -20 -20 -20 -20 -20 -20 -20 -20 -20 -20 -20 -20 -20 -20 -20 -20 -20 -20 -20 -20 -20 -20 -20 -17 -19 -20 -19 -15 -20 -20 -20 -20 -20 -20 -20 -20 -20 -20 -20 -20 -20 -20 -20 -20 -20 -19 7
-20 -20 -20 -20 -20 -20 -20 -20 -20 -20 -20 -20 -20 -20 -20 -20 -20 -20 -20 -20 -20 -20 -20 -20 -20 -20 -20 -20 -15 -14 -19 -20 -20 -20 -20 -20 -20 -20 -20 -20 -20 -20 -20 -20 -20 -20 -20 -20 -20 -20 -20 -20 -20 -20
-20 -20 -20 -20 -20 -20 -20 -20 -20 -20 -20 -20 -20 -20 -20 -20 -20 -20 -20 -20 -20 -20 -20 -20 -20 -7 -12 -9 -0 -12 -20 -14 1 -3 -20 -20 -20 -20 -20 -20 -20 -20 -20 -20 -20 -20 -20 -20 -20 -20 -20 -20 -20 -20
-20 -20 -20 -20 -20 -20 -20 -20 -20 -20 -20 -20 -20 -20 -20 -18 5 -3 -14 -16 -0 6 10 12 10 4 3 -3 -20 -19 -8 -8 -20 -20 -20 -20 -20 -20 -20 -20 -20 -20 -20 -20 -20 -20 -20 -20 -20 -20 -20 -20 -20 -20

GFSWCAN_prec_radar_006.txt.gz
Reflectivity
-6 7 7 11 8 -20 -20 -20 -20 -20 -20 -20 -20 -20 -20 -20 -20 -20 -20 -20 -20 -20 -20 -20 -20 -20 -20 -20 -20 -20 -20 -20 -20 -20 -20 -20 -20 -20 -20 -20 -20 -20 -20 -20 -14 -20 -20 -20 -15 17 -13 -8 -19 -10
-11 -7 5 -20 8 -17 -20 -20 -20 -20 -20 -20 -20 -20 -20 -20 -20 -20 -20 -20 -20 -20 -20 -20 -20 -20 -20 -20 -20 -20 -20 -20 -20 -20 -20 -20 -20 -20 -20 -20 -20 -20 -20 -20 4 -19 -20 -20 14 -11 -19 -19 -20 -9
7 14 13 13 3 11 -18 -20 -20 -20 -20 -20 -20 -20 -20 -20 -20 -20 -20 -20 -20 -20 -20 -20 -20 -20 -20 -20 -20 -20 -20 -20 -20 -20 -20 -20 -20 -20 -10 -19 -18 -20 -20 -20 -16 -20 -20 -13 -19 -20 -20 -17 10 27
14 20 22 15 12 -5 -11 -20 -20 -20 -20 -20 -20 -20 -20 -20 -20 -20 -20 -20 -20 -20 -20 -20 -20 -20 -20 -20 -20 -20 -20 -20 -20 -20 -20 -12 -20 -20 -5 -17 11 -11 -20 -20 -20 -20 -20 -12 -9 -20 11 -20 -20 -4
-2 24 23 16 24 12 -7 -20 -20 6 4 4 2 0 -20 -20 -20 -20 -20 -20 -20 -20 -20 -20 -20 -20 -20 -20 -20 -20 -20 -20 -6 -11 0 -20 -20 -19 17 24 22 -19 -18 -11 -20 2 29 28 6 11 -8 -20 -20 -19
9 25 28 18 18 27 -5 -19 -20 4 -18 -12 0 2 -20 -20 -20 -20 -20 -20 -20 -20 -20 -20 -20 -20 -20 -20 -20 -20 -20 -20 -20 -20 -7 -20 -2 2 24 26 10 -19 -20 6 12 23 15 -19 -20 -20 -20 -20 -20 -20
9 21 13 22 21 25 27 14 6 -10 -2 4 13 -19 -20 -19 -19 -20 -20 -20 -20 -20 -3 -20 -20 -20 -20 -20 -20 -20 -20 -20 -20 -20 -16 13 3 16 22 7 -2 -20 -20 -20 -10 -14 -20 -20 -20 -20 -20 -18 -20 -20
-2 -1 7 27 26 24 30 32 20 10 1 -20 -20 -20 1 23 20 19 -17 -20 -20 -20 -20 -20 -20 -20 -20 -20 -20 -20 -20 -20 -20 -20 -2 -20 -20 -3 26 -15 -20 -20 -20 -20 -20 -20 -20 -20 -20 -20 -20 -20 -20 -20
-18 -10 11 14 22 21 24 27 26 30 20 13 20 22 18 15 14 6 26 5 -10 6 -20 -1 11 2 -4 -20 -20 -20 -20 -20 -20 -20 -2 7 -20 -14 -20 -20 -20 -20 -20 -20 -20 -20 -20 -20 -20 -20 -20 -20 -20 -20
-20 -20 -7 3 14 12 16 21 20 21 30 31 30 31 34 30 27 12 34 31 39 24 13 29 14 20 13 6 1 20 23 -5 -20 -20 -20 -20 -20 -20 -15 -20 -20 -20 -20 -20 -20 -20 -20 -20 -20 -20 -20 -20 -20 -20
-17 -20 -20 -20 0 4 11 15 23 30 36 34 37 36 29 26 26 31 34 40 35 22 18 14 -19 -13 6 23 34 29 2 -20 -20 -20 -20 -20 -20 -20 -20 -20 -20 -20 -20 -20 -20 -20 -20 -20 -20 -20 -20 -20 -20 -20
-20 -20 -20 -7 -2 12 18 20 20 13 24 29 29 26 32 34 31 28 26 20 4 -20 -20 -18 -7 11 18 10 3 26 -2 3 -6 -17 -20 -20 -20 -20 -20 -20 -20 -20 -20 -20 -20 -20 -20 -20 -20 -20 -20 -20 -20 -20
-20 -15 -0 1 -20 -15 13 18 16 12 2 -0 5 14 13 12 3 -6 -20 -20 -20 -16 1 5 3 -5 3 -0 6 -7 -17 -20 -20 -20 -20 -20 -20 -20 -20 -20 -20 -20 -20 -20 -20 -20 -20 -20 -20 -20 -20 -20 -20 -20
-20 -20 12 12 -5 -20 -20 17 14 9 -1 -18 -4 -13 -9 -7 -20 -20 -20 -20 -9 2 1 -11 -20 -20 -18 -6 -16 -20 -17 -20 -9 -20 -20 -20 -20 -20 -20 -20 -20 -20 -20 -20 -20 -20 -20 -20 -20 -20 -20 -20 -20 -20
-20 -20 -5 6 5 -14 -20 -18 7 1 -8 -20 -20 -20 -20 -20 -20 -20 -20 -19 -20 -16 -11 -15 -20 -19 -20 -3 -20 -20 -20 -20 -20 -20 -20 -20 -20 -20 -20 -20 -20 -20 -20 -20 -20 -20 -20 -20 -20 -20 -20 -20 -20 -20
9 -8 -20 -11 -1 -3 -1 -15 -20 -20 -20 -20 -20 -20 -20 -20 -20 -20 -20 -15 -9 15 -9 -10 -20 -19 -19 -20 -20 -20 -20 -20 -20 -20 -20 -20 -20 -20 -20 -20 -20 -20 -20 -20 -20 -20 -20 -20 -20 -20 -20 -20 -20 -20
19 3 -20 -20 -20 -19 -7 -16 -20 -20 -20 -20 -20 -20 -20 -20 -20 -20 -20 -16 -1 -10 -20 -20 -20 -20 -20 -20 -20 -20 -20 -20 -20 -20 -20 -20 -20 -20 -20 -20 -20 -20 -20 -20 -20 -20 -20 -20 -20 -20 -20 -20 -20 -20
32 9 17 6 -20 -20 -20 -20 -20 -20 -20 -20 -20 -20 -20 -20 -20 -20 -20 -20 -20 -20 -20 -20 -20 -20 -20 -20 -20 -20 -20 -20 -20 -20 -20 -20 -20 -20 -20 -20 -20 -20 -20 -20 -20 -20 -20 -20 -20 -20 -20 -20 -20 -20
33 29 14 21 4 -20 -20 -20 -20 -20 -20 -20 -20 -20 -20 -20 -20 -20 -20 -20 -20 -20 -20 -20 -20 -20 -20 -20 -20 -20 -20 -20 -20 -20 -20 -20 -20 -20 -20 -20 -20 -20 -20 -20 -20 -20 -20 -20 -20 -20 -20 -20 -20 -20
33 18 19 10 -16 -19 -20 -20 -20 -20 -20 -20 -20 -20 -20 -20 -20 -20 -20 -20 -20 -20 -16 -20 -20 -20 -20 -20 -20 -20 -20 -20 -20 -20 -20 -20 -20 -20 -20 -20 -20 -20 -20 -20 -20 -20 -20 -20 -20 -20 -20 -8 -4 -20
11 19 18 -10 -20 -20 -20 -20 -20 -20 -20 -20 -20 -20 -20 -20 -20 -20 -20 -20 -20 -20 -20 -20 -20 -20 -20 -20 -20 -20 -20 -20 -20 -20 -20 -20 -20 -20 -20 -20 -20 -20 -20 -20 -20 -20 -20 -20 -20 -20 -20 -20 -20 1
26 17 15 -20 -20 -20 -20 -20 -20 -20 -20 -20 -20 -20 -20 -20 -20 -20 -20 -20 -20 -20 -20 -20 -20 -20 -20 -20 -20 -20 -20 -20 -20 -20 -20 -20 -20 -20 -20 -20 -20 -20 -20 -20 -20 -20 -20 -20 -18 -18 -20 -19 -1 -20
2 -11 -5 -11 -20 -20 -20 -20 -20 -20 -20 -20 -20 -20 -20 -20 -20 -20 -20 -20 -20 -20 -20 -20 -20 -20 -20 -20 -20 -20 -20 -20 -20 -20 -20 -20 -20 -20 -20 -20 -20 -20 -20 -20 -20 -20 -20 -11 -2 -5 -15 -16 -20 -20
-20 -20 -20 -20 -20 -20 -20 -20 -20 -20 -20 -20 -20 -20 -20 -20 -20 -20 -20 -20 -20 -20 -20 -20 -20 -20 -20 -20 -20 -20 -20 -20 -20 -20 -20 -20 -20 -20 -20 -20 -20 -20 -20 -20 -20 -20 -20 -20 -17 -20 -3 -19 -20 -20
-20 -20 -20 -20 -20 -20 -20 -20 -20 -20 -20 -20 -20 -20 -20 -20 -20 -20 -20 -20 -20 -20 -20 -20 -20 -20 -20 -20 -20 -20 -20 -20 -20 -20 -20 -20 -20 -20 -20 -20 -20 -20 -20 -20 -20 -20 -20 -11 -19 -20 -20 -20 -20 -20
-20 -20 -20 -20 -20 -20 -20 -20 -20 -20 -20 -20 -20 -20 -20 -20 -20 -20 -20 -20 -20 -20 -20 -20 -20 -20 -20 -20 -20 -20 -20 -20 -20 -20 -20 -20 -20 -20 -20 -20 -20 -20 -20 -20 -19 -11 -8 -20 -20 -20 -10 -5 -9 -20
-20 -20 -20 -20 -20 -20 -20 -20 -20 -20 -20 -20 -20 -20 -20 -20 -20 -20 -20 -20 -20 -20 -20 -20 -20 -20 -20 -20 -20 -20 -20 -20 -20 -20 -20 -20 -20 -20 -10 -7 -19 -20 -20 -18 -18 -20 -18 -19 -20 -20 -19 -20 -20 -20
-20 -20 -20 -20 -20 -20 -20 -20 -20 -20 -20 -20 -20 -20 -20 -20 -20 -20 -20 -20 -20 -20 -20 -20 -20 -20 -20 -20 -20 -20 -20 -20 -20 -20 -20 -19 -12 -15 -8 -18 -20 -20 -20 -19 -16 -20 -20 3 -16 -20 -20 -20 -20 -20
-20 -20 -20 -20 -20 -20 -20 -20 -20 -20 -20 -20 -20 -20 -20 -20 -20 -20 -20 -20 -20 -20 -20 -20 -20 -20 -20 -20 -20 -20 -20 -20 -20 -19 -20 -20 -20 -20 -8 -20 -20 -20 -20 -20 11 3 -20 -20 -20 -20 -20 -20 -20 -20
-20 -20 -20 -20 -20 -20 -20 -20 -20 -20 -20 -20 -20 -20 -20 -20 -20 -20 -20 -20 -20 -20 -20 -20 -20 -20 -20 -19 -20 -20 -18 -12 3 6 -10 -20 -20 -20 -20 -20 -20 -20 -20 -20 -20 -20 -20 -20 -20 -20 -20 -20 -20 -20
-20 -20 -20 -20 -20 -20 -20 -20 -20 -20 -20 -20 -20 -20 -20 -20 -20 -20 -20 -20 -20 -20 -20 -20 -20 -20 -20 -20 -19 -19 -14 -11 -18 -18 -20 -20 -20 -20 -20 -20 -20 -20 -20 -20 -20 -20 -20 -20 -20 -20 -20 -20 -20 -20
-20 -20 -20 -20 -20 -20 -20 -20 -20 -20 -20 -20 -20 -20 -20 -20 -20 -20 -20 -20 -20 -20 -20 -20 -20 -20 -16 -7 -4 4 3 -16 -20 -20 -20 -20 -20 -20 -20 -20 -20 -20 -20 -20 -20 -20 -20 -20 -20 -20 -20 -20 -20 -20
-20 -20 -20 -20 -20 -20 -20 -20 -20 -20 -20 -20 -20 -20 -20 -20 -20 0 15 15 8 5 9 9 7 7 7 4 2 -7 -1 2 -10 -20 -20 -20 -20 -20 -20 -20 -20 -20 -20 -20 -20 -20 -20 -20 -20 -20 -20 -20 -20 -20

GFSWCAN_prec_radar_009.txt.gz
Reflectivity
23 8 7 -10 12 -16 -20 -20 -20 -20 -20 -20 -20 -20 -20 -20 -20 -20 -20 -20 -20 -20 -20 -20 -20 -20 -20 -20 -20 -20 -20 -20 -20 -20 -20 -20 -20 -20 -20 -20 -20 -20 -20 -20 -20 -20 -20 -20 -14 -9 -19 3 1 -17
15 3 -20 -18 12 13 -19 -20 -20 -20 -20 -20 -20 -20 -20 -20 -20 -20 -20 -20 -20 -20 -20 -20 -20 -20 -20 -20 -20 -20 -20 -20 -20 -20 -20 -20 -20 -20 -20 -20 -20 -20 -20 -20 -10 -20 -20 -20 -20 -20 4 30 21 10
7 21 4 -12 -20 12 12 -17 -20 -20 -20 -20 -20 -20 -20 -20 -20 -20 -20 -20 -20 -20 -20 -20 -20 -20 -20 -20 -20 -20 -20 -20 -20 -20 -20 -20 -20 -20 -20 -20 -20 -20 -20 -20 -18 -20 -20 -20 -20 -20 -10 22 -1 -20
-20 -16 19 7 -11 -2 -9 11 -20 -20 -20 -20 -20 -20 -20 -20 -20 -20 -20 -20 -20 -20 -13 -20 -20 -20 -20 -20 -20 -20 -20 -20 -20 -20 -20 -18 -20 -20 -20 -20 -20 -20 -19 -20 -7 -20 -20 -20 -18 10 19 -20 -20 -20
-20 -20 -20 11 -8 -19 -20 -6 -6 -20 -20 -20 -3 -17 -20 -20 -20 -20 -20 -20 -20 -20 -20 -20 -20 -20 -20 -20 -20 -20 -20 -20 -20 -6 7 -18 -20 -20 -20 -17 -14 -20 -20 15 3 3 11 15 4 22 17 -20 -20 -20
-20 -20 2 14 16 13 12 0 10 -18 -15 -17 -20 -8 -20 -20 -20 -20 -20 -20 -20 -20 -20 -20 -20 -20 -20 -20 -20 -20 -20 -20 -20 -20 1 -18 -20 -20 16 25 -3 -20 -12 -15 10 -14 22 9 -20 -20 -20 -20 -20 -20
-20 -20 -14 19 19 22 22 19 9 -14 -20 -17 -20 -20 -20 -18 -16 -20 -20 -20 -20 -20 -20 -20 -20 -20 -20 -20 -20 -20 -20 -20 -20 -20 -20 -19 5 12 18 27 1 -20 -20 -20 -10 -15 -20 -20 -20 -20 -20 -20 -20 -20
-20 -20 -20 -19 19 27 25 21 17 8 -2 -2 8 9 -2 -10 -18 -20 -20 -13 -20 -20 -20 -20 -20 -20 -20 -20 -12 -20 -20 -20 -20 -20 -20 -20 -20 -18 -3 -16 -20 -20 -20 -20 -20 -20 -20 -20 -20 -20 -20 -20 -20 -20
-20 -20 -20 -20 17 19 30 26 23 27 27 18 15 22 20 17 23 -16 4 -20 -20 -20 -19 -20 -20 -20 -20 -20 -20 -20 -20 -16 -19 -20 -20 -20 -20 11 9 -11 -20 -20 -20 -20 -20 -20 -20 -20 -20 -20 -20 -20 -20 -20
-20 -20 -20 -20 -16 9 17 27 26 28 24 26 26 20 29 12 19 19 19 25 26 26 26 10 -8 -14 -20 -20 -20 -17 -6 -13 -18 -20 -20 -15 10 -1 -20 -20 -20 -20 -20 -20 -20 -20 -20 -20 -20 -20 -20 -20 -20 -20
-20 -20 -20 -20 -20 2 -11 25 29 33 35 32 35 33 26 26 21 32 32 27 32 23 18 24 29 20 -18 -1 13 4 27 16 -20 -20 -20 -20 -20 -20 -20 -20 -20 -20 -20 -20 -20 -20 -20 -20 -20 -20 -20 -20 -20 -20
-20 -20 -20 -20 -1 -20 6 18 29 35 37 36 34 29 32 30 31 32 28 25 13 -16 -11 -15 -6 -14 -11 -18 4 28 15 -8 -20 -20 -20 -20 -20 -20 -20 -20 -20 -20 -20 -20 -20 -20 -20 -20 -20 -20 -20 -20 -20 -20
-12 -20 -20 -18 -17 14 15 11 23 31 29 33 32 32 38 27 18 6 3 0 -20 -20 -20 -12 -4 12 13 12 12 -18 -20 -20 -20 -20 -20 -20 -20 -20 -20 -20 -20 -20 -20 -20 -20 -20 -20 -20 -20 -20 -20 -20 -20 -20
-9 -20 -20 7 -20 13 20 17 -7 15 28 28 30 19 9 16 5 -16 -20 -19 -2 4 0 -7 -16 -20 -20 -13 -17 -20 -20 -20 -20 -20 -20 -20 -20 -20 -20 -20 -20 -20 -20 -20 -20 -20 -20 -20 -20 -20 -20 -20 -20 -20
16 -20 -20 -3 -13 -15 17 18 8 -2 13 7 13 15 14 12 9 5 9 14 6 -7 -10 -20 -20 -20 -20 -19 -20 -20 -20 -20 -20 -20 -20 -20 -20 -20 -20 -20 -20 -20 -20 -20 -20 -20 -20 -20 -20 -20 -20 -20 -20 -20
28 4 -20 -11 14 16 17 18 -4 -20 -0 -9 4 3 2 3 4 -4 -3 -5 -11 -12 -7 -6 -19 -20 -20 -17 -19 -20 -20 -20 -20 -20 -20 -20 -20 -20 -20 -20 -20 -20 -20 -20 -20 -20 -20 -20 -20 -20 -20 -20 -20 -20
32 2 -20 -20 11 12 -0 -19 -20 -20 -20 -20 -20 -20 -20 -8 -10 -13 -20 -20 -19 -10 -20 -20 -20 -20 -20 -20 -20 -20 -20 -20 -20 -20 -20 -20 -20 -20 -20 -20 -20 -20 -20 -20 -20 -20 -20 -20 -20 -20 -20 -20 -20 -20
37 9 -20 -20 -18 -5 2 4 10 -2 -20 -20 -20 -20 -20 -20 -20 -20 -20 -19 -13 -20 -20 -20 -20 -20 -20 -20 -20 -20 -20 -20 -20 -20 -20 -20 -20 -20 -20 -20 -20 -20 -20 -20 -20 -20 -20 -20 -20 -20 -20 -20 -20 -20
29 14 22 -0 -20 -20 -19 -20 -20 -20 -20 -20 -20 -20 -20 -20 -20 -20 -20 -20 -20 -20 -20 -20 -20 -20 -20 -20 -20 -20 -20 -20 -20 -20 -20 -20 -20 -20 -20 -20 -20 -20 -20 -20 -20 -20 -20 -20 -20 -20 -20 -20 -20 -20
39 28 33 31 17 -11 -20 -20 -20 -20 -20 -20 -20 -20 -20 -20 -20 -20 -20 -20 -18 -20 -20 -20 -20 -20 -20 -20 -20 -20 -20 -20 -20 -20 -20 -20 -20 -20 -20 -20 -20 -20 -20 -20 -20 -20 -20 -20 -20 -20 -17 -8 -2 -16
39 34 34 21 -19 -20 -20 -20 -20 -20 -20 -20 -20 -20 -20 -20 -20 -20 -20 -20 -20 -20 -20 -20 -20 -20 -20 -20 -20 -20 -20 -20 -20 -20 -20 -20 -20 -20 -20 -20 -20 -20 -20 -20 -20 -20 -20 -20 -20 -20 -20 -7 -8 -15
19 10 0 -19 -20 -20 -20 -20 -20 -20 -20 -20 -20 -20 -20 -20 -20 -20 -20 -20 -20 -20 -20 -20 -20 -20 -20 -20 -20 -20 -20 -20 -20 -20 -20 -20 -20 -20 -20 -20 -20 -20 -20 -20 -20 -20 -20 -20 -20 -20 -20 -20 5 -20
-13 -20 -20 -20 -20 -20 -20 -20 -20 -20 -20 -20 -20 -20 -20 -20 -20 -20 -20 -20 -20 -20 -20 -20 -20 -20 -20 -20 -20 -20 -20 -20 -20 -20 -20 -20 -20 -20 -20 -20 -20 -20 -20 -20 -20 -20 -20 -20 -7 -9 -20 5 7 0
-20 -16 -20 -20 -20 -20 -20 -20 -20 -20 -20 -20 -20 -20 -20 -20 -20 -20 -20 -20 -20 -20 -20 -20 -20 -20 -20 -20 -20 -20 -20 -20 -20 -20 -20 -20 -20 -20 -20 -20 -20 -20 -20 -20 -20 -20 -20 -20 -20 -20 3 -19 -20 -16
-17 -15 -20 -20 -20 -20 -20 -20 -20 -20 -20 -20 -20 -20 -20 -20 -20 -20 -20 -20 -20 -20 -20 -20 -20 -20 -20 -20 -20 -20 -20 -20 -20 -20 -20 -20 -20 -20 -20 -20 -20 -20 -20 -20 -20 -20 -20 -10 8 -1 -20 -20 -20 -16
-20 -20 -20 -20 -20 -20 -20 -20 -20 -20 -20 -20 -20 -20 -20 -20 -20 -20 -20 -20 -20 -20 -20 -20 -20 -20 -20 -20 -20 -20 -20 -20 -20 -20 -20 -20 -20 -20 -20 -20 -20 -20 -20 -18 -20 -20 -20 -20 -20 -20 -20 -20 -6 -0
-20 -20 -20 -20 -20 -20 -20 -20 -20 -20 -20 -20 -20 -20 -20 -20 -20 -20 -20 -20 -20 -20 -20 -20 -20 -20 -20 -20 -20 -20 -20 -20 -20 -20 -20 -20 -20 -20 -20 -18 -18 -15 -17 -20 -20 -20 -20 -20 -20 -14 -17 -18 -13 -20
-20 -20 -20 -20 -20 -20 -20 -20 -20 -20 -20 -20 -20 -20 -20 -20 -20 -20 -20 -20 -20 -20 -20 -20 -20 -20 -20 -20 -20 -20 -20 -20 -20 -20 -20 -20 -20 -18 -20 -20 -17 -10 -19 -20 -20 -20 -20 -20 -18 -20 -20 -3 -6 -20
-20 -20 -20 -20 -20 -20 -20 -20 -20 -20 -20 -20 -20 -20 -20 -20 -20 -20 -20 -20 -20 -20 -20 -20 -20 -20 -20 -20 -20 -20 -20 -20 -20 -20 -20 -20 -20 -19 -18 -20 -20 -20 -20 -20 -20 -19 -20 -20 -20 -20 -20 -20 -20 -20
-20 -20 -20 -20 -20 -20 -20 -20 -20 -20 -20 -20 -20 -20 -20 -20 -20 -20 -20 -20 -20 -20 -20 -20 -20 -20 -20 -20 -20 -20 -20 -20 -14 -3 -6 -14 -15 -18 -20 -20 -20 -20 -20 -20 -20 -20 -20 -20 -20 -20 -20 -20 -20 -20
-20 -20 -20 -20 -20 -20 -20 -20 -20 -20 -20 -20 -20 -20 -20 -20 -20 -20 -20 -20 -20 -20 -20 -20 -20 -20 -20 -20 -19 -18 -16 -5 2 -2 -15 -10 -16 -19 -20 -20 -20 -20 -20 -20 -20 -20 -20 -20 -20 -20 -20 -20 -20 -20
-20 -20 -20 -20 -20 -20 -20 -20 -20 -20 -20 -20 -20 -20 -20 -20 -20 -20 -20 -20 -20 -20 -20 -6 -2 -2 5 5 3 3 1 -13 -18 -13 0 -2 -11 -13 -20 -20 -20 -20 -20 -20 -20 -20 -20 -20 -20 -20 -20 -20 -20 -20
-20 -20 -20 -20 -20 -20 -20 -20 -20 -20 -20 -20 -20 -20 -20 -20 -20 -20 -20 -20 -20 -20 -20 -20 -17 -7 -4 -2 3 1 0 4 -2 -6 -1 -4 -14 -19 -20 -20 -20 -20 -20 -20 -20 -20 -20 -20 -20 -20 -20 -20 -20 -20

GFSWCAN_prec_radar_015.txt.gz
Reflectivity
18 2 8 -2 -20 -20 -20 -20 -20 -20 -20 -20 -20 -20 -20 -20 -20 -20 -20 -20 -20 -8 -20 -20 -20 -20 -20 -20 -20 -20 -20 -20 -20 7 -16 -20 -20 -20 -20 -20 -20 -20 -14 -20 4 -8 -2 -20 -20 3 -13 -4 11 -20
29 20 6 6 -20 -20 -20 -20 -20 -20 -20 -20 -20 -20 -20 -20 -20 -20 -20 -20 -20 -20 -20 -20 -20 -20 -20 -20 -20 -20 -20 -20 -20 -8 -2 -3 13 1 -9 -20 -20 -20 -20 -20 -16 -20 -20 -20 24 23 12 9 -20 -20
23 21 20 -6 0 -16 -19 -20 -20 -20 -20 -20 -20 -20 -20 -20 -20 -20 -20 -20 -20 -16 -20 -20 -20 -20 -20 -20 -20 -20 -20 -20 -20 -20 -20 -11 11 -20 -20 -20 -20 -20 -20 -20 -14 -20 -20 -20 -19 8 -19 -20 -20 -20
32 28 25 4 -3 -20 -6 -9 -20 -20 -20 -20 -20 -20 -20 -20 -20 -20 -20 -20 -20 -10 27 -20 -20 -20 -20 -20 -20 -20 -20 -20 -20 -20 0 -3 17 -20 -16 -20 -20 -20 -20 -13 -7 -20 -20 -20 -20 -19 21 -20 -20 -20
16 25 26 20 11 -0 -20 -20 -20 -20 -20 -20 -7 7 -20 -20 -20 -20 -20 -20 -20 -20 16 -20 -20 -20 -20 -20 -20 -20 -20 -20 -20 3 12 4 -20 -15 -5 -20 -20 -20 -20 7 11 8 -12 -5 17 13 14 -0 -20 -20
2 14 6 14 16 -16 -20 -20 -20 -20 -20 5 -2 -15 -20 -20 -20 -20 -20 -20 -20 -20 -14 6 -20 -20 -20 -20 -20 -20 -20 -20 2 5 1 -20 5 5 -6 8 -20 -20 -20 -20 -0 2 -20 -20 17 26 -19 -20 -20 -20
-19 -14 -19 -20 -20 -20 -20 -6 -20 -17 -20 -15 -12 -20 -8 -20 -0 1 4 -15 -20 -20 9 14 -14 -20 -20 -20 -20 -20 -20 -13 4 -11 -4 -20 5 -4 15 -6 -20 -20 -20 -20 -20 -20 -16 12 1 -17 -20 -20 -20 -20
-20 -20 -20 -20 -20 -20 -20 -20 -20 -20 -4 -14 -19 3 -19 -20 -20 -7 -20 -20 -20 -20 -16 -15 -8 -20 -20 -9 -10 -20 -10 -2 8 11 -15 -20 -11 -5 -10 -20 -20 -20 -20 -20 -20 -8 18 -2 -20 -20 -20 -20 -20 -20
-20 -20 -20 -20 -20 -20 -20 -20 -20 -19 2 -14 -7 9 -0 -15 -15 -9 -20 -20 -20 -19 6 11 -16 -15 -20 -18 -11 -19 -19 9 -12 10 -9 1 -9 2 -20 -20 -20 -20 -20 -20 -20 -18 -20 -20 -20 -20 -20 -20 -20 -20
-20 -20 -20 -20 -20 -20 -20 -20 -20 -20 19 24 27 18 23 11 12 -20 -20 -20 -20 -20 -17 -14 -6 -2 -20 -13 17 -9 -20 4 -17 -20 -20 -20 -20 -20 -20 -20 -20 -20 -20 -20 -20 -20 -20 -20 -20 -20 -20 -20 -20 -20
-20 -20 -20 -20 -20 -20 -20 -3 -19 -3 31 35 34 37 25 28 3 -10 -15 -2 -16 -11 -20 -13 -20 -20 -20 -12 -11 -19 8 3 -4 -3 -1 3 1 -20 -20 -20 -20 -20 -20 -20 -20 -20 -20 -20 -20 -20 -20 -20 -20 -20
-20 -20 -20 -20 -17 -16 -20 -20 12 6 14 31 33 29 26 31 26 25 35 19 19 -2 -20 -17 -20 -13 -15 -20 -19 16 32 14 2 -11 2 1 -20 -20 -20 -20 -20 -20 -20 -20 -20 -20 -20 -20 -20 -20 -20 -20 -20 -20
-20 -20 -20 -20 -13 10 -20 -20 5 16 15 29 35 36 33 31 30 29 19 16 7 7 -3 19 11 8 13 19 30 27 16 19 -13 -17 -3 -19 -20 -20 -20 -20 -20 -20 -20 -20 -20 -20 -20 -20 -20 -20 -20 -20 -20 -20
-20 -20 -20 -20 -16 15 -3 -8 7 10 -1 28 34 29 33 27 36 31 24 -3 -13 -7 -16 -15 19 30 24 24 26 25 23 -10 4 -2 -20 -20 -20 -20 -20 -20 -20 -20 -20 -20 -20 -20 -20 -20 -20 -20 -20 -20 -20 -20
-20 -20 -20 -20 1 14 6 12 13 -3 -18 18 30 23 24 30 29 30 31 23 14 18 26 31 30 19 23 16 24 13 3 -0 -12 -1 -15 -10 -20 -20 -20 -20 -20 -20 -20 -20 -20 -20 -20 -20 -20 -20 -20 -20 -20 -20
-20 -20 1 -20 -12 12 14 -6 9 -6 -20 -6 24 20 26 28 29 29 37 36 26 24 15 21 24 16 6 9 2 6 9 -20 -20 -20 -20 -20 -20 -20 -20 -20 -20 -20 -20 -20 -20 -20 -20 -20 -20 -20 -20 -20 -20 -20
-20 14 -20 -20 -19 12 -6 30 24 -17 -17 10 -3 17 20 25 22 34 24 30 23 27 30 22 8 12 11 7 2 7 5 -8 -20 -20 -20 -20 -20 -20 -20 -20 -20 -20 -20 -20 -20 -20 -20 -20 -20 -20 -20 -20 -20 -20
2 4 -20 -20 -19 22 23 -20 3 -13 -20 -20 -3 -3 -7 4 5 9 6 -2 2 5 4 3 3 3 2 -1 -20 -20 -20 -20 -20 -20 -20 -20 -20 -20 -20 -20 -20 -20 -20 -20 -20 -20 -20 -20 -20 -20 -20 -20 -20 -20
10 -6 -20 -20 3 -1 21 23 -20 -20 -20 -20 -20 -20 -20 -11 -17 -20 -20 -12 -13 -14 -20 -20 -18 -20 -7 -20 -20 -20 -20 -20 -20 -20 -20 -20 -20 -20 -20 -20 -20 -20 -20 -20 -20 -20 -20 -20 -20 -20 -20 -20 -19 -4
-7 26 3 15 -16 24 4 -2 -14 -17 -20 -20 -20 -11 -20 -14 -6 -3 -2 -4 -12 -9 -4 -6 -19 -18 -20 -20 -20 -20 -20 -20 -20 -20 -20 -20 -20 -20 -20 -20 -20 -20 -20 -20 -20 -20 -20 -20 -20 -20 15 -19 -20 -3
17 26 23 8 -15 -20 -20 -20 -20 -20 -20 -20 -20 -20 -20 -20 -11 -20 -20 -20 -15 13 -3 -20 -20 -20 -20 -20 -20 -20 -20 -20 -20 -20 -20 -20 -20 -20 -20 -20 -20 -20 -20 -20 -20 -20 2 21 -19 -20 -20 -13 -7 4
4 28 33 18 22 8 -20 -20 -20 -20 -3 -0 -3 -8 -20 -12 -20 -20 -20 -6 -20 -20 -20 -20 -20 -20 -20 -20 -20 -20 -20 -20 -20 -20 -20 -20 -20 -20 -20 -20 -20 -20 -20 -10 11 -17 -1 -20 -15 -11 -9 -20 4 7
26 32 35 28 9 -8 -8 -20 -7 -20 -3 -3 -10 -2 -2 -7 -17 -20 -19 -15 -20 -20 -20 -20 -20 -20 -20 -20 -20 -20 -20 -20 -20 -20 -20 -20 -20 -20 -20 -20 -20 -12 -4 -20 -20 -8 15 9 7 -3 -13 0 7 11
32 29 25 20 10 -8 -5 -4 -20 -20 -20 -20 -16 -20 -20 -14 -20 -7 -17 -20 -20 -20 -20 -20 -20 -20 -20 -20 -20 -20 -20 -20 -20 -20 -20 -20 -20 -20 -17 -20 -13 -20 -12 -8 3 3 6 -14 10 3 9 9 11 1
26 22 19 9 -8 -4 -7 -7 -5 -20 -20 -20 -20 -20 -4 -20 -20 -20 -20 -20 -19 -17 -3 -20 -20 -20 -20 -20 -20 -20 -20 -20 -20 -1 9 16 12 17 -19 -20 -20 -10 -0 -11 -19 -7 -2 8 7 5 -4 8 4 8
4 -11 -12 -3 -11 -20 -20 -20 -20 -20 -20 -20 -14 -20 -16 -3 -18 -20 -20 -13 2 -15 0 -7 -20 -20 -20 -20 -20 -20 -20 -20 -20 -20 -20 -20 4 15 15 7 2 -0 13 15 9 8 7 10 8 1 6 8 11 6
-17 -20 -11 -20 -20 -20 -20 -20 -20 -20 -20 -20 -20 -13 -20 -20 -20 -20 -20 -20 -20 -11 -20 -18 -11 -20 -20 -20 -20 -20 -20 -18 -20 -10 -20 -6 2 1 6 15 12 7 -13 1 5 9 10 5 2 10 9 6 10 14
-20 -11 -20 -5 -20 -20 -20 -20 -20 -20 -20 -20 -20 -20 -20 -20 -20 -18 -20 -20 -18 -20 -20 -20 -20 -20 -20 -6 -7 -17 -7 -6 -5 -4 -18 -2 12 18 -3 2 9 -4 -0 7 5 2 9 11 8 3 6 8 2 4
-15 -13 -20 -20 -20 -20 -20 -20 -20 -20 -20 -20 -20 -20 -20 -20 -4 -4 -5 -5 -6 -18 -20 -19 -18 -6 -10 -18 -2 5 -2 -3 -7 -20 -19 -2 -5 -17 -3 -2 -1 2 3 5 8 11 -1 -20 -18 -7 -18 -5 -3 -20
-20 -16 -10 -20 -20 -20 -11 -20 4 -9 -20 -20 -20 -20 -20 -11 -1 -11 -3 -3 -9 -2 -0 -0 -1 -1 -1 -2 -0 -3 0 1 -0 -0 -2 -4 2 3 1 -2 -19 -8 2 4 0 6 10 -3 -6 -1 -5 -1 -1 -2
-20 -20 -20 -14 -10 -1 -14 -20 -20 -20 -20 -17 6 -10 -8 -15 -1 -2 -3 -2 -1 -2 -3 -3 -3 -1 -1 -1 -2 -2 -20 -7 -1 -3 -14 -16 -3 -2 -9 -20 -3 -14 -3 3 2 6 2 -0 1 -0 -1 -19 -20 -4
-20 -20 -20 -3 0 -20 -20 -16 -2 -15 2 -0 -7 -6 -5 -3 -5 -2 1 -0 -0 -2 -2 -0 -2 -2 0 3 2 3 -15 2 2 -1 -2 -20 -20 -20 -20 -20 -19 -18 -4 -1 4 6 5 -1 -4 -2 -1 -5 -20 -20
-5 -10 -17 -4 -5 -1 -7 -20 -20 -20 -20 -20 -2 -5 -5 -20 -20 -1 -1 0 1 -0 -1 0 2 -1 4 1 4 2 -2 -0 3 1 -10 -20 -20 -20 -20 -20 -20 -20 -17 2 5 3 -3 -14 -8 -12 -20 -20 -20 -20

GFSWCAN_prec_radar_018.txt.gz
Reflectivity
9 -20 -0 -5 -20 -20 -20 -20 -20 -20 -20 -20 -20 -20 -20 -20 -20 -20 -20 -20 -20 -20 -20 -20 -20 -20 -20 -20 -20 -20 -20 -20 -20 -18 -11 -20 -20 -20 -20 -20 -20 -20 -20 -20 -20 -13 -16 -20 -20 -20 -20 -20 -13 -19
12 -12 6 -20 -20 -20 -20 -20 -20 -20 -20 -20 -20 -20 -20 -20 -20 -20 -20 -20 -20 -20 -20 -20 -20 -20 -20 -20 -20 -20 -20 -20 -20 -19 4 -3 -7 -3 -20 -20 -20 -20 -20 -20 -20 -20 -20 -9 -12 -20 -20 -20 -19 -16
32 9 -4 3 -7 -20 -20 -20 -20 -20 -20 -20 -20 -20 -20 -20 -20 -20 -20 -20 -20 -16 -20 -20 -20 -20 -20 -20 -20 -20 -20 -20 -20 -20 -15 -20 2 -20 -20 -20 -20 -20 -20 -20 -20 -20 -20 -20 -20 -20 -20 -20 -19 -20
30 28 21 16 0 -20 -20 -20 -20 -20 -20 -20 -20 -20 -20 -20 -20 -20 -20 -20 -20 -20 22 -20 -20 -20 -20 -20 -20 -20 -20 -20 -20 -20 -5 12 -19 -20 -20 -20 -20 -20 -20 -20 -20 -20 -20 -9 -20 -20 -20 -20 11 9
31 28 24 20 -0 -10 -20 -11 -20 -20 -20 -16 1 8 -20 -20 -20 -20 -20 -20 -20 -20 -10 -20 -20 -20 -20 -20 -20 -20 -20 -20 -20 -2 0 -14 -20 -20 -13 -20 -20 -14 -20 -20 -20 -20 -20 -9 -20 -20 -20 -1 7 -19
32 29 20 19 1 9 -20 -12 -20 -20 4 10 9 8 -20 -20 -20 -20 -20 -20 -20 -20 -16 7 -20 -20 -20 -20 -20 -20 -20 -20 -16 -20 -20 -20 -20 -3 12 -20 -20 -20 -20 -20 -20 -20 -20 -20 -20 -20 -20 -19 -20 -20
7 21 9 21 15 6 -0 -10 -20 -1 -4 8 10 9 1 -20 -20 -20 -20 -20 -20 -20 4 5 -14 -20 -20 -20 -20 -15 -20 -13 -17 -19 3 -20 -20 8 9 -19 -20 -20 -20 -20 -20 -20 -20 -20 -20 -20 -20 -20 -20 -20
-17 -7 18 -9 0 23 19 -20 -20 -20 -20 -13 2 6 -20 -20 -6 -20 -20 -20 -20 -20 -20 -20 -11 -20 -20 -10 -16 -20 -20 -20 -10 -0 -10 -20 -4 -14 -10 -20 -20 -20 -20 -20 -20 -20 -20 -20 -20 -20 -20 -20 -20 -20
-20 -20 -3 7 1 -20 -20 -20 -20 -20 -20 -10 -2 -17 -20 -18 -13 1 -20 -20 -20 -20 -4 13 -17 -18 -20 -20 -20 -20 -20 8 -13 10 -15 -8 -20 -20 -20 -20 -20 -20 -20 -20 -20 -20 -15 -20 -20 -20 -20 -20 -20 -20
-20 -20 -20 -20 -20 -20 -20 -20 -20 -20 -5 16 4 3 17 10 -20 -20 -19 -20 -20 -20 -19 -4 -11 -20 -20 -20 -17 -20 -10 4 -20 -19 -20 -20 -20 -20 -20 -20 -20 -20 -20 -20 -20 -20 -20 -20 -20 -20 -20 -20 -20 -20
-20 -20 -20 -20 -20 -20 -20 -20 -10 -8 16 26 28 18 11 23 -16 -20 -1 -3 -18 1 -17 -20 -9 -20 -20 -15 -7 -20 -20 -16 3 -20 3 -2 -18 -20 -20 -20 -20 -20 -20 -20 -20 -20 -20 -20 -20 -20 -20 -20 -20 -20
-20 -20 -20 -20 -20 -17 -20 -0 8 -9 -12 20 26 26 24 30 27 28 33 17 -20 -20 -20 -20 -20 -8 -17 -14 -20 -20 -16 -20 -19 -18 6 -1 -20 -20 -20 -20 -20 -20 -20 -20 -20 -20 -20 -20 -20 -20 -20 -20 -20 -20
-20 -20 -20 -20 -20 -20 -20 -6 11 12 14 15 30 36 36 31 28 25 15 8 11 -4 -10 -7 -17 -20 -20 -20 -14 -5 5 -8 2 2 -9 -15 -2 -20 -20 -20 -20 -20 -20 -20 -20 -20 -20 -20 -20 -20 -20 -20 -20 -20
-20 -20 -20 -20 -20 -13 -9 13 14 -1 -8 -1 27 23 26 23 30 30 24 23 23 20 -8 -14 -8 -15 2 -3 28 18 27 25 6 8 -19 12 -18 -20 -20 -20 -20 -20 -20 -20 -20 -20 -20 -20 -20 -20 -20 -20 -20 -20
-20 -20 -20 -20 -20 -2 -14 -13 -5 -20 -20 10 9 14 20 24 26 24 23 25 20 20 27 29 26 24 26 14 29 19 13 14 7 19 28 8 -6 4 -9 -20 -20 -20 -20 -20 -20 -20 -20 -20 -20 -20 -20 -20 -20 -20
-20 -1 -7 -20 -20 -15 5 -20 -13 -16 -20 -10 -16 -1 16 21 26 31 32 31 30 35 33 29 30 24 16 24 17 15 12 9 31 19 -1 -3 -6 -9 -9 -20 -20 -20 -20 -20 -20 -20 -20 -20 -20 -20 -20 -20 -20 -20
-20 16 -20 -20 -16 -19 -20 -2 11 5 -20 -20 -19 -2 -1 -5 19 21 22 27 26 26 29 27 11 15 17 12 10 20 16 17 5 -13 -20 -7 -7 -20 -20 -20 -20 -20 -20 -20 -20 -20 -20 -20 -20 -20 -20 -20 -20 -20
0 -0 -13 -19 -8 -20 -20 -12 6 -4 -20 -20 -10 -20 -20 -3 -19 -5 -16 -1 -8 10 9 3 1 7 7 10 13 12 -10 -10 4 4 -6 -20 -20 -20 -20 -20 -20 -20 -20 -20 -20 -20 -20 -20 -20 -20 -20 -16 -5 -18
4 -11 -1 16 -0 -18 -20 -20 -20 -18 -11 -20 -20 -20 -12 -10 -20 -13 -15 -20 -20 -20 -19 -13 -6 5 -3 -15 -20 -17 -16 -18 -20 -20 -20 -20 -20 -20 -20 -20 -20 -20 -20 -20 -20 -20 -20 -20 -20 -20 -20 -20 -20 -20
-20 -15 -5 24 2 -3 -20 -20 -20 -20 -5 -16 -20 -20 -20 -20 -20 1 3 -12 -20 -11 -8 -20 -18 -20 -19 -20 -15 -18 -20 -20 -20 -20 -20 -20 -20 -20 -20 -20 -20 -20 -20 -20 -20 -20 -20 -20 -20 -2 -20 -20 18 17
1 8 17 26 -2 -20 -20 -20 -20 -20 -20 -16 -20 -1 -20 -19 -11 -20 -20 -20 -6 3 -15 -20 -20 -20 -20 -20 -20 -20 -20 -20 -20 -20 -20 -20 -20 -20 -20 -20 -20 -20 -20 -20 -20 -20 -20 -20 -20 -20 18 3 13 1
4 18 29 27 23 -20 -20 -20 -13 -20 -5 -7 -20 -19 -20 -20 -20 -20 -20 -14 -20 -20 -20 -20 -20 -20 -20 -20 -20 -20 -20 -20 -20 -20 -20 -20 -20 -20 -20 -20 -20 -20 -20 -20 -9 -20 -20 -10 -10 -9 -13 -1 -1 -18
26 29 28 34 19 -3 -20 -20 -20 -14 -11 -20 -15 -18 -20 -20 -20 -20 -20 -20 -20 -20 -20 -20 -20 -20 -20 -20 -20 -20 -20 -20 -20 -20 -20 -20 -20 -20 -20 6 -0 12 16 -20 -2 -20 2 -1 -19 -4 -20 -5 -3 -0
33 30 7 21 24 9 -15 -20 -20 -20 -20 -2 -6 -1 -16 -5 -20 -20 -20 -20 -20 -20 -20 -20 -20 -20 -20 -20 -20 -20 -20 -20 -20 -20 -19 -15 -13 -20 7 3 -7 0 8 19 21 14 -12 -20 -20 -20 -15 -6 0 3
28 21 18 17 9 -11 -19 -6 -19 -20 -20 -16 -20 -5 -7 -20 -3 -20 -20 -8 -8 -20 -20 -19 -20 -20 -20 -19 -20 -20 -20 -20 -20 -20 -20 -20 -5 -19 -9 -6 -20 -5 -20 -12 -18 19 6 -11 -7 -1 9 1 2 5
21 12 8 1 -0 -9 -9 -13 -18 -20 -20 -12 -20 -17 -20 -19 -20 -20 -10 2 -15 -16 -15 -20 -20 -20 -20 -20 -20 -20 -20 -20 -15 -11 -20 -20 -20 -3 4 7 11 -11 -4 4 23 13 9 7 9 12 3 -4 13 10
8 -2 -11 -12 3 2 -0 -20 -20 -20 -20 -20 -13 -15 -16 -20 -20 -10 -20 -20 -16 -20 -20 -20 -20 -20 -20 -20 -20 -20 -13 -20 -20 -2 -20 -20 5 2 -2 3 1 4 4 3 4 10 12 11 8 8 12 7 11 12
-5 -11 -20 -7 -20 -20 -20 -20 -20 -20 -20 -20 -14 -18 -20 -20 -9 -18 -20 -20 -20 -20 -20 -20 -20 -20 -20 -20 -20 -0 -18 -12 -20 -20 -20 1 -2 -20 -20 -4 -2 -18 -2 -4 -0 -2 3 9 -4 0 3 5 7 -0
-20 -20 -20 -20 -20 -20 -20 -20 -20 -20 -20 -20 0 3 -19 -20 -15 -20 -18 -1 -19 -19 -20 -19 -18 -20 -20 -4 4 -2 -8 -7 -16 -20 -20 -19 -10 -18 -9 3 1 -1 0 -3 -19 -3 -1 10 -15 -9 2 9 4 8
-6 -20 -19 -20 -20 -15 3 -3 -7 -20 -20 -6 -20 -20 -20 -20 -0 -20 -1 -4 -11 -3 2 2 3 -2 0 -2 1 -11 10 -12 -6 -2 -8 -6 -10 4 4 2 -10 -8 2 1 1 -12 -3 -18 -11 10 -1 -7 1 -0
-20 -20 -20 -15 -9 -7 -20 -20 -14 -20 -20 -20 -20 -1 -14 -18 -2 -5 -15 2 2 -7 -9 -3 -4 2 -4 -1 -0 -2 -4 -20 3 2 -7 2 2 3 2 -0 -0 3 2 -0 -2 -3 5 -4 8 8 -5 -0 -1 -17
-20 -20 -20 -8 3 -1 -20 -20 -20 -20 4 -16 3 -20 -7 -5 -20 -3 -4 -3 -0 -3 -19 -2 -4 -2 -1 2 6 6 2 4 7 5 3 4 2 3 2 -20 1 -1 -19 -20 -6 5 4 -5 4 -5 6 -6 -6 -20
-20 -20 -20 -20 -20 -20 -16 -20 -20 -20 -7 -18 -6 -20 -20 -9 -20 -3 -0 1 2 -3 -2 -2 -3 -1 6 -16 -20 2 -20 -12 -17 2 2 1 -20 -20 -16 -8 3 -20 -20 -20 -17 7 -14 -11 -9 -1 -2 -3 -20 -20

GFSWCAN_prec_radar_021.txt.gz
Reflectivity
2 -9 -20 -20 -20 -20 -20 -20 -20 -20 -20 -20 -20 -20 -20 -20 -20 -20 -20 -20 -20 -20 -20 -20 -20 -20 -20 -20 -20 -20 -20 -20 -20 -20 -18 -20 -20 -20 -20 -20 -20 -20 -20 -20 -20 -20 -20 -20 -20 -20 -20 -20 -20 -20
3 -20 -20 -20 -20 -20 -20 -20 -20 -20 -20 -20 -20 -20 -20 -20 -20 -20 -20 -20 -20 -20 -20 -20 -20 -20 -20 -20 -20 -20 -20 -20 -20 -20 5 -19 -18 -16 -20 -20 -20 -20 -20 -20 -20 -20 -20 -20 -20 -20 -20 -20 -20 -20
-13 -20 -20 -20 -20 -20 -20 -20 -20 -20 -20 -20 -20 -20 -20 -20 -20 -20 -20 -20 -20 -20 -20 -20 -20 -20 9 -20 -20 -20 -20 -20 -20 -20 -20 -20 -20 -20 -20 -20 -20 -20 -20 -20 -20 -20 -20 -20 -20 -20 -20 -20 -20 -20
26 9 -18 1 -20 -20 -20 -20 -20 -20 -20 -20 -20 -11 -20 -20 -20 -20 -20 -20 -20 -20 11 -20 -20 -20 -20 -20 -20 -20 -20 -20 -20 -20 -20 -3 -20 -20 -20 -20 -20 -18 -19 -19 -13 -18 -20 -20 -20 -20 -20 -20 -19 -11
26 28 14 -3 3 -17 -20 -20 -20 -20 -20 6 11 12 -14 -20 -20 -20 -20 -20 -20 -20 -18 -20 -20 -20 -20 -20 -20 -20 -20 -20 -20 -20 -20 -20 -20 -20 -20 -20 -20 -8 -9 2 9 -19 -20 -20 -20 -20 -20 -20 -18 -20
25 28 23 19 13 6 -20 -20 -20 -20 10 11 11 10 -20 -20 -20 -20 -20 -20 -20 -20 -20 -20 -20 -20 -20 -20 -20 -20 -20 -20 -20 -20 -5 -20 -20 -20 -2 -18 -16 -7 4 -3 -20 -20 -20 -20 -20 -20 -20 -20 -20 -20
33 29 24 22 2 -20 -7 4 -15 -14 10 9 8 5 -20 -20 -20 -20 -20 -20 -20 -20 -20 -10 -15 -20 -20 -20 -20 -20 -20 -20 -20 -20 -12 -20 -20 -20 -4 -20 -13 -11 -20 -20 -20 -20 -20 -20 -20 -20 -20 -20 -20 -20
17 34 24 17 12 10 -20 -20 -19 -20 -14 10 11 -18 -20 0 -14 -20 -20 -20 -20 -20 -20 -20 -20 -20 -20 -20 -20 -20 -20 -20 -20 -20 -17 -20 -20 1 -15 -20 -20 -20 -20 -20 -20 -20 -20 -20 -20 -20 -20 -20 -20 -20
-20 -4 17 15 9 10 -2 -4 -20 -20 -16 -19 -18 -20 -20 -20 -20 -20 -20 -20 -20 -20 -20 -15 -20 -20 -20 -20 -20 -20 -20 -20 -20 -16 -20 -20 -20 -20 -20 -20 -20 -20 -20 -20 -20 -20 -20 -20 -7 -20 -20 -20 -20 -20
-14 -20 -20 -4 -12 -18 -15 -12 -20 -20 -20 -17 -20 -20 -20 -20 -2 -20 -20 -20 -20 -20 -20 -20 -13 -20 -20 -20 -20 -20 -20 -20 -20 -20 -20 -20 -20 -20 -20 -20 -20 -20 -20 -20 -20 -20 -20 -20 -20 -20 -20 -20 -20 -20
-20 -20 -20 -20 -20 -20 -18 -19 -11 7 22 -3 -0 -3 -19 -16 -1 -15 -20 -20 -20 -20 -20 -20 -20 -20 -20 -20 -20 -20 -20 -20 -10 -20 -20 -20 -20 -20 -20 -20 -20 -20 -20 -17 -8 -11 -19 -20 -20 -20 -20 -20 -20 -20
-20 -20 -20 -20 -13 -9 6 -12 5 -10 -2 26 24 20 17 19 24 27 12 -20 -20 -20 -16 17 -18 -20 -20 -20 -2 2 -19 -14 -20 -20 -11 -20 -20 -20 -20 -20 -20 -17 -17 -20 -20 -20 -16 -16 -20 -20 -20 -20 -20 -20
-20 -20 -20 -20 -20 -20 -20 2 -1 0 13 3 19 28 32 29 26 22 -1 7 -4 -5 -10 1 -11 -20 -20 -20 9 -9 -8 -13 -15 -19 -20 -20 -11 -16 -20 -20 -20 -20 -20 -20 -20 -20 -20 -20 -20 -20 -20 -20 -20 -20
-20 -20 -20 -20 -20 -20 -20 -20 -14 9 0 -13 13 16 16 18 8 6 -13 -1 15 23 18 -3 -16 -18 8 15 20 21 22 17 10 -4 -20 -4 12 15 -19 -20 -20 -20 -20 -20 -20 -20 -20 -20 -20 -20 -20 -20 -20 -20
-20 -20 -20 -20 -20 -20 -20 -20 -20 -20 -20 -11 -20 -16 7 4 13 7 -11 -3 12 11 22 26 23 28 13 17 13 17 15 14 13 17 21 29 19 -8 -20 -20 -20 -20 -20 -20 -20 -20 -20 -20 -20 -20 -20 -20 -20 -20
-20 -20 -20 -20 -20 -20 -20 -20 -20 -20 -20 -20 -20 -13 -18 -3 -3 17 17 19 20 21 24 28 16 16 13 11 9 13 12 15 22 26 16 8 4 5 4 -16 -20 -20 -20 -20 -20 -20 -20 -20 -20 -20 -20 -20 -20 -20
8 9 -20 -20 -20 -20 -20 -20 -20 -20 -20 -20 -20 -18 11 -20 -20 7 -16 11 10 -12 -19 20 -13 -5 1 8 12 9 17 10 11 -4 2 6 -1 -19 -20 -20 -20 -20 -20 -20 -20 -20 -20 -20 -20 -20 -20 -20 -20 -20
-3 -13 6 -2 -8 -19 -20 -20 -20 -20 -20 -20 -20 -8 -15 -20 4 -5 0 -3 -20 -20 -20 -20 -20 -11 -1 -0 7 16 8 4 11 11 6 -1 -1 -9 -20 -20 -20 -20 -20 -20 -20 -20 -20 -20 -20 -20 -20 -20 -20 -20
-17 -20 -19 -7 -10 -20 -20 -20 -20 -20 -20 -20 -20 -1 7 -2 -20 -15 -2 -20 -20 -20 -20 -20 -20 -15 -20 -5 -3 -4 -9 -20 -20 -20 -20 -20 -20 -20 -20 -20 -20 -20 -20 -20 -20 -20 -20 -20 -20 -20 -20 -20 -20 -20
-3 -20 9 12 -20 -19 -20 -20 -20 -20 -20 -20 -20 -20 -20 -10 9 9 8 5 -20 -20 -20 -20 -20 -20 -20 -20 -20 -20 -20 -20 -20 -20 -20 -20 -20 -20 -20 -20 -20 -20 -20 -20 -20 -20 -20 -20 -20 -20 -20 -20 -20 -20
6 -20 -3 6 -3 -20 -20 -20 -20 -20 -20 -20 -20 -20 -20 -3 -17 -8 -20 -20 -20 -20 -20 -20 -20 -20 -20 -20 -20 -20 -20 -20 -20 -20 -20 -20 -20 -20 -20 -20 -20 -20 -20 -20 -20 -20 -20 -20 -20 -20 -20 -20 -20 -20
-16 4 0 -6 26 -3 -20 -20 -20 -20 -20 -20 -18 -20 -18 -11 -5 -8 -20 -20 -16 -20 -20 -20 -20 -20 -20 -20 -20 -20 -20 -20 -20 -20 -20 -20 -20 -20 -20 -20 -20 -20 -20 -20 -13 -2 -15 -2 12 -9 -20 -20 -5 -20
9 -3 13 24 -1 -15 -16 -20 -20 -20 -20 -20 -20 -20 -20 -20 -20 -20 -20 -20 -20 -20 -20 -20 -20 -20 -20 -20 -20 -20 -20 -20 -20 -20 -20 -20 -20 -20 -20 -20 -20 -20 -20 -20 -20 -11 -20 -20 -19 -20 -20 -20 -20 -17
-16 -20 -13 16 2 12 -5 -20 -20 -20 -20 -13 -20 -20 -20 -20 -20 -20 -20 -20 -20 -20 -20 -20 -20 -20 -20 -20 -20 -20 -20 -20 -20 -20 -20 -20 -20 -20 -20 -20 -20 -20 -20 -20 -20 -8 -5 -20 -20 3 -20 -20 -2 -10
-20 -7 9 14 -13 -9 -19 -19 -20 -20 -20 -20 -20 -20 -20 -20 -20 -20 -20 -20 -20 -20 -20 -20 -20 -20 -20 -20 -20 -20 -20 -20 -20 -20 -20 -20 -20 -20 -20 -20 -20 -20 -20 -20 -20 -20 -20 -20 10 9 1 -19 1 6
-20 -9 -13 -7 -20 -16 -20 -20 -12 -2 -15 -20 -20 -20 -20 -20 -20 -20 -15 -11 -20 -20 -20 -20 -20 -20 -20 -20 -20 -20 -20 -20 -20 -20 -20 -20 -15 -17 -20 -20 -20 -20 -20 -15 -20 -20 -20 -20 -20 -9 7 -7 -10 -20
-5 -11 -20 -20 -17 -16 -14 -2 7 14 11 -6 -20 -20 -20 -20 -20 -13 -20 -20 -20 -20 -20 -20 -20 -20 -20 -20 -20 -16 -20 -20 -20 -20 -20 2 -20 -20 -17 -13 -10 -20 -20 -5 -20 -20 -17 -17 -12 -20 -20 -20 -0 -11
-20 3 11 12 14 10 13 8 -5 -20 -20 -20 -20 -20 -20 -20 -20 -19 -19 -20 -20 -20 -17 -20 -20 -20 -20 -6 -17 -20 -20 -20 -20 -20 -13 -1 -20 -20 -20 -20 -6 -20 -20 -20 -20 -20 -20 -17 -7 -16 -19 -15 7 -2
-6 -20 -20 -20 -20 -20 -20 -20 -20 -20 -20 -20 -20 -20 -20 -20 -20 -20 -20 -20 -20 -20 -20 -20 -20 -20 -20 -20 -12 -20 -20 -20 -20 -20 -20 -20 -20 -20 -20 -20 -20 -20 -20 -20 -20 -20 -20 -7 1 -8 3 10 3 -7
-20 -20 -20 -20 -20 -20 -17 -20 -20 -20 -20 -20 -20 -20 -20 -15 -20 -20 -20 -20 -20 -20 -20 -20 -20 -20 -20 -20 -20 -20 -20 -20 -20 -20 -20 -20 -14 -20 -20 -20 -20 -20 -20 -20 -20 -20 -20 -20 -16 7 -2 -20 4 3
-4 -20 -20 -20 -11 -11 -17 -19 -17 -20 -20 -20 -20 -20 -20 -20 -20 -20 -20 -20 -20 -20 -20 -20 -20 -20 -20 -20 -20 -20 -20 -20 -20 -20 -20 -20 -20 -20 -20 -20 -20 -20 -17 -20 -20 -20 -20 -20 -2 0 -11 -20 -2 -5
-20 -20 -20 -20 -3 -20 -20 -20 -20 -20 -20 -20 -20 -20 -20 -20 -20 -20 -20 -20 -20 -20 -20 -20 -20 -20 -20 -20 -20 -20 -19 -20 -20 -20 -20 -20 -20 -20 -20 -20 -20 -20 -20 -20 -20 -20 -20 -20 -20 -19 -1 -3 -1 -4
-20 -20 -20 -20 -20 -20 -20 -20 -20 -20 -20 -20 -20 -20 -20 -20 -20 -20 -20 -20 -20 -20 -20 -20 -20 -20 -20 -20 -20 -20 -20 -20 -20 -20 -20 -7 -20 -20 -20 -20 -16 -4 -20 -20 -20 -20 -20 -20 -20 -14 -13 -0 2 -0

GFSWCAN_prec_radar_024.txt.gz
Reflectivity
-4 -20 -20 -20 -19 -18 -20 -20 -20 -20 -20 -20 -20 -20 -20 -20 -20 -20 -20 -20 -20 -20 -20 -20 -20 -20 -20 -20 -20 -20 -20 -20 -20 -20 -20 -20 -20 -20 -20 -20 -20 -20 -20 -20 -20 -20 -20 -20 -20 -20 -20 -20 -20 -20
-5 -20 -20 -20 -16 -19 -20 -20 -20 -20 -20 -20 -20 -20 -20 -20 -20 -20 -20 -20 -20 -20 -20 -20 -20 -20 -20 -20 -20 -20 -20 -20 -20 -20 -20 -20 -20 -20 -20 -20 -20 -20 -20 -20 -20 -20 -20 -20 -20 -20 -20 -20 -20 -20
4 -18 -20 -20 -19 -19 -20 -20 -20 -20 -20 -20 -20 -18 -20 -20 -20 -20 -20 -20 -20 -20 -20 -20 -20 -20 -20 -20 -20 -20 -20 -20 -20 -20 -20 -20 -20 -20 -20 -20 -20 -20 -20 -20 -20 -20 -20 -20 -20 -20 -20 -20 -20 -20
-20 -20 -20 -20 -20 -20 -20 -20 -20 -20 -20 -9 9 11 -17 -20 -20 -20 -20 -20 -20 -20 -16 -20 -20 -20 -20 -20 -20 -20 -20 -20 -20 -20 -20 -20 -20 -20 -20 -20 -20 -20 -20 -20 -20 -20 -20 -20 -20 -20 -20 -20 -20 -20
-1 -20 -20 -20 -20 -20 -20 -20 -20 -9 8 10 8 -1 -20 -20 -20 -20 -20 -20 -20 -20 -19 -20 -20 -20 -20 -20 -20 -20 -20 -20 -20 -20 -20 -20 -20 -20 -19 -20 -20 -19 -20 -20 -19 -20 -20 -20 -20 -20 -20 -20 -20 -20
18 -5 -10 -20 -20 -20 -20 -20 -19 9 9 8 9 -17 -20 -20 -20 -20 -20 -20 -20 -20 -20 -20 -20 -20 -20 -20 -20 -20 -20 -20 -20 -20 -20 -20 -20 -20 -20 -20 -20 -20 -20 -20 -20 -20 -20 -20 -20 -20 -20 -20 -20 -20
30 22 14 -16 -20 -20 -20 -19 9 11 8 11 2 -20 -0 -20 -20 -20 -20 -20 -20 -20 -20 -20 -20 -20 -20 -20 -20 -20 -20 -20 -20 -20 3 -20 -20 -20 2 -20 -20 -20 -20 -20 -20 -20 -20 -20 -20 -20 -20 -20 -20 -20
26 22 19 19 -11 -5 -8 -13 -11 7 9 9 -3 -20 -7 -20 -20 -20 -20 -20 -20 -20 -20 -20 -20 -20 -20 -20 -20 -20 -11 -20 -20 -20 -20 -20 -20 7 -20 -20 -20 -20 -20 -20 -20 -20 -20 -20 -20 -20 -14 -20 -20 -20
32 16 18 20 15 -17 -20 -12 4 -10 10 9 -20 -20 -20 -20 -20 -20 -20 -11 -20 -20 -20 -19 -20 -20 -20 -20 -20 -20 -20 -20 -20 -11 -20 -20 -20 -20 -20 -20 -20 -20 -20 -20 -20 -20 -20 -20 3 4 -3 -6 -20 -20
11 31 27 15 14 8 -19 -20 -18 6 -3 -20 -20 -20 -20 -20 -4 -20 -20 -20 -20 -20 -20 -20 -20 -20 -20 -20 -12 -20 -9 -20 -20 -20 -20 -20 -20 -20 -20 -20 -20 -20 -20 -20 -20 -20 -19 27 23 15 -9 -20 -20 -20
-20 -20 10 20 3 -17 -16 -15 9 -0 3 -20 -20 -14 -20 -17 -20 -20 -20 -20 -20 -20 -20 -20 -20 -20 -20 -20 -20 -20 -20 -20 -20 -20 -20 -20 -20 -20 -20 -20 -20 -20 -20 -20 -7 6 25 21 14 -20 -16 -13 -19 -20
-20 -20 -20 -19 -0 -11 -20 -1 -7 7 -6 -20 -20 -20 -20 -15 -20 -20 -20 -20 -20 -20 -20 -18 -20 -20 -20 -20 -20 -20 -20 -19 -20 -20 -15 -17 -20 -20 -20 -20 -20 -20 -20 -11 19 27 17 -13 -3 9 -4 -16 -20 -20
-20 -20 -20 -20 6 2 -19 -18 -20 19 28 24 24 20 26 28 21 22 -4 -13 -19 -11 -3 -16 -20 -20 -20 -20 22 22 8 -14 -18 -12 -19 -7 11 1 -4 11 5 8 13 16 8 19 15 4 -5 -16 -20 -20 -20 -20
-20 -20 -20 -19 -1 2 6 2 -5 14 9 24 29 18 14 9 -10 -7 -20 -2 16 8 -6 -13 -12 -6 -4 22 22 14 21 17 10 -2 -20 14 30 27 -3 -19 -16 -5 -10 -19 -20 -20 -12 -20 -20 -20 -20 -20 -20 -20
-20 -20 -20 -20 -20 -20 -20 -20 -9 -10 -11 -20 -20 -10 0 5 -2 -3 -9 -1 20 22 24 23 17 26 8 11 7 12 7 5 11 11 2 33 12 -12 0 0 0 -16 -20 -20 -20 -20 -20 -20 -20 -20 -20 -20 -20 -20
-20 -20 -20 -20 -20 -20 -20 -20 -20 -20 -20 -20 -20 -14 -20 -20 -16 13 17 3 7 7 17 21 -4 10 10 11 -6 2 3 12 7 5 -3 9 6 -9 8 18 -20 -20 -20 -20 -20 -20 -20 -20 -20 -20 -20 -20 -20 -20
-20 -20 -20 -20 -20 -20 -20 -20 -20 -20 -20 -20 -20 -20 -20 -20 -20 -17 -2 -2 -2 12 -18 -5 -20 -20 -8 -1 -1 3 9 6 21 21 8 1 0 1 5 10 13 -2 -20 -20 -20 -20 -20 -20 -20 -20 -20 -20 -20 -20
-20 -20 -20 -20 -20 -20 -20 -20 -20 -20 -20 -3 -20 -17 -20 -18 -0 -20 -20 -19 -20 -20 -20 -20 -20 -20 -17 -8 13 10 16 15 14 11 7 8 7 3 -9 -20 -20 -20 -20 -20 -20 -20 -20 -20 -20 -20 -20 -20 -20 -20
-20 -20 -20 -19 -20 -20 -20 -20 -20 -20 -20 -13 -7 4 9 5 -20 -12 6 -20 -20 -20 -20 -20 -20 -20 -20 -20 -20 -17 0 -7 -15 -19 -15 -13 -14 -16 -20 -20 -20 -20 -20 -20 -20 -20 -20 -20 -20 -20 -20 -20 -20 -20
-20 -20 -20 -6 -18 -20 -20 -20 -20 -20 -20 -20 -20 7 -18 -3 -16 -15 -8 -6 -20 -20 -20 -20 -20 -20 -20 -20 -20 -20 -20 -20 -20 -20 -20 -20 -20 -20 -20 -20 -20 -20 -20 -20 -20 -20 -20 -20 -20 -20 -20 -20 -20 -20
-20 -20 -20 -12 -20 -20 -20 -20 -20 -20 -20 -20 -20 -20 -17 5 -15 -2 -16 -20 -20 -20 -20 -20 -20 -20 -20 -20 -20 -20 -20 -20 -20 -20 -20 -20 -20 -20 -20 -20 -20 -20 -20 -20 -20 -20 -20 -20 -20 -20 -20 -20 -20 -20
-20 -20 -10 -20 -20 -20 -20 -20 -20 -20 -20 -20 -20 -20 -8 -20 -20 -19 -16 -20 -20 -20 -20 -20 -20 -20 -20 -20 -20 -20 -20 -20 -20 -20 -20 -20 -20 -20 -20 -20 -20 -20 -20 -20 -20 -20 -20 -20 -20 -20 -3 -20 -20 -20
-16 -20 -15 -20 -20 -20 -20 -20 -20 -20 -20 -20 -20 -20 -20 -20 -20 -20 -20 -20 -20 -20 -20 -20 -20 -20 -20 -20 -20 -20 -20 -20 -20 -20 -20 -20 -20 -20 -20 -20 -20 -20 -20 -20 -9 -20 -20 -20 -20 -18 -20 -19 16 1
-12 -20 -20 -20 -20 -17 -18 -20 -20 -20 -20 -20 -20 -20 -20 -19 -19 -20 -20 -20 -20 -20 -20 -20 -20 -20 -20 -20 -20 -20 -20 -20 -20 -20 -20 -20 -20 -20 -20 -20 -20 -20 -20 -17 -20 -20 -20 -20 -20 -20 -20 -20 -18 -16
-20 -20 -20 -20 -20 -20 -20 -20 -20 -20 -20 -20 -20 -20 -20 -20 -20 -20 -20 -20 -20 -20 -20 -20 -20 -20 -20 -20 -20 -20 -20 -20 -20 -20 -20 -20 -20 -20 -20 -20 -20 -20 -20 -20 -20 -20 -20 -20 -20 -20 -20 -19 -20 -6
-20 -20 -20 -20 -20 -20 -20 -20 -20 -20 -20 -18 -20 -20 -20 -20 -20 -20 -20 -18 -20 -20 -20 -20 -20 -20 -20 -20 -20 -20 -20 -20 -20 -20 -20 -20 -20 -20 -20 -20 -20 -20 -20 -20 -20 -20 -20 -20 -20 -20 -20 -20 -20 -20
-6 -20 -20 -20 -20 -7 -10 -19 -15 -19 -16 -7 -16 -1 4 -20 -20 -20 -20 -19 -20 -17 -20 -20 -20 -20 -20 -20 -15 -20 -20 -20 -20 -20 -20 -20 -20 -20 -20 -20 -20 -20 -20 -20 -20 -20 -20 -20 -20 -20 -20 -20 -20 -6
-19 -12 -20 -20 6 4 6 3 10 8 5 2 -5 -6 -15 -20 -20 -18 -19 -17 -17 -20 -20 -20 -20 -20 -20 -20 -20 -20 -20 -20 -20 -20 -20 -20 -20 -20 -20 -20 -20 -20 -20 -20 -20 -20 -20 -20 -20 -20 -20 -20 -13 0
16 5 9 11 8 -1 -9 -20 -20 -20 -20 -20 -20 -20 -20 -20 -20 -20 -19 -20 -20 -20 -20 -20 -20 -20 -20 -20 -20 -20 -20 -20 -20 -20 -20 -20 -20 -20 -20 -20 -20 -20 -20 -20 -20 -20 -20 -20 -20 -19 12 6 3 4
-1 -20 -20 -14 -20 -20 -20 -20 -20 -20 -20 -20 -20 -20 -20 -20 -19 -19 -20 -20 -20 -20 -20 -20 -20 -20 -20 -20 -20 -20 -20 -20 -20 -20 -20 -20 -20 -20 -20 -20 -20 -20 -20 -20 -20 -20 -20 -20 -20 -20 -20 -8 -4 -3
-20 -20 -20 -20 -20 -20 -20 -20 -11 -18 -20 -20 -20 -20 -20 -20 -20 -20 -20 -20 -20 -20 -20 -20 -20 -20 -20 -20 -20 -20 -20 -20 -20 -20 -20 -20 -20 -20 -20 -20 -20 -20 -20 -20 -20 -20 -20 -20 -20 -20 -20 -20 -20 -20
-20 -20 -20 -20 -20 -20 -20 -20 -20 -20 -20 -20 -20 -20 -20 -20 -20 -20 -20 -20 -20 -20 -20 -20 -20 -20 -20 -20 -20 -20 -20 -20 -20 -20 -20 -20 -20 -20 -20 -20 -20 -20 -20 -20 -20 -20 -20 -20 -20 -20 -20 -20 -20 -20
-20 -20 -20 -20 -20 -20 -20 -20 -20 -20 -20 -20 -20 -20 -20 -20 -20 -20 -20 -20 -20 -20 -20 -20 -20 -20 -20 -20 -20 -20 -20 -20 -20 -20 -20 -20 -20 -20 -20 -20 -20 -20 -20 -20 -20 -20 -20 -20 -20 -20 -20 -20 -20 -20

GFSWCAN_prec_radar_030.txt.gz
Reflectivity
20 12 -17 2 5 11 -20 -20 -20 -19 -20 -20 -20 -20 -20 -20 -20 -20 -20 -20 -20 -20 -20 -20 -20 -20 -20 -20 -20 -20 -20 -20 -20 -20 -20 -20 -20 -20 -20 -20 -20 -20 -20 -20 -20 -20 -20 -20 -20 -20 -20 -20 -20 -20
15 -2 -19 6 7 -20 -20 -20 -20 1 -20 -13 6 -19 -20 -20 -0 29 15 -20 -20 -20 -20 -20 -20 -20 -20 -20 -20 -20 -20 -20 -20 -20 -20 -20 -20 -20 -20 -20 -20 -20 -20 -20 -20 -20 -20 -20 -20 -20 -20 -20 -20 -20
-20 -20 -20 -20 -20 -20 -20 -20 -19 2 8 -12 -20 -20 -20 -20 -20 18 11 -20 -20 -20 -20 -20 -20 -20 -20 -20 -20 -20 -20 -20 -20 -20 -20 -20 -20 -20 -20 -20 -20 -20 -20 -20 -20 -20 -20 -20 -20 -20 -20 -20 -20 -20
-20 -19 -20 -20 -20 -20 -20 -19 8 19 6 -16 -20 -20 -20 -20 -20 -8 -20 -20 -20 -20 -20 -20 -20 -20 -20 -20 -20 -20 -20 -20 -20 -20 -20 -20 -20 -20 -20 -20 -20 -20 -20 -20 -20 -20 -20 -20 -20 -20 -20 -20 -20 -20
-19 -14 -20 -20 -20 -20 -3 -0 8 9 3 -20 -16 -20 -20 -20 -20 -20 -20 -20 -20 -20 -20 -20 -20 -20 -20 -20 -20 -20 -20 -20 -20 -20 -20 -20 -20 -20 -20 -20 -20 -20 -20 -20 -20 -20 -20 -20 -20 -20 -20 -20 -20 -20
-20 -12 13 -5 -20 7 4 -2 6 9 -20 8 -18 -19 -20 5 -20 -20 -20 -20 -20 -20 -20 -20 -20 -20 -20 -20 -20 -20 -20 -20 -20 -20 -20 -20 -20 -20 -20 -20 -19 -20 -20 -20 -20 -20 -20 -20 -20 -20 -20 -20 -20 -20
-20 -20 -20 -20 -1 2 11 9 11 -15 -16 -16 -20 -20 -20 -20 -20 -20 -20 -14 8 -20 -20 -20 -20 -20 -20 -20 -20 -20 -20 -20 -20 -20 -16 -20 -20 -20 -20 -20 -20 -20 -20 -20 -20 -20 -20 -20 -20 -20 -20 -20 -20 -20
-20 -20 -9 19 25 3 22 7 11 2 -20 -20 -20 -20 -20 -20 -20 -20 -20 -20 -20 -20 -20 -20 -20 -20 -20 -20 -8 -20 -14 -20 -20 -13 7 1 4 -5 -20 -20 -20 -20 -20 -20 -20 -20 -20 -20 -20 -20 -20 -20 -20 -13
-20 -20 -17 -1 -1 28 17 -5 8 -1 -20 -20 -20 -20 -20 -20 -20 -20 -20 -20 -20 -20 -20 -20 -20 -20 -20 -20 -4 -20 -19 -20 -20 -3 -13 -20 -19 -20 -20 -20 -20 -20 -20 -20 -20 -20 -20 -20 -20 -20 -20 -13 2 10
8 -4 -10 -17 -5 32 27 -13 -3 -20 2 -3 -20 -20 -20 -20 -20 -20 -20 -20 -20 -20 -20 -20 -19 -20 -20 -20 -20 -20 -20 -20 -20 -20 -20 -20 -20 -20 -20 -20 -20 -20 -20 -20 -20 -20 -20 -20 -20 -18 -10 25 21 26
16 19 7 -16 -11 -17 12 26 11 -5 -20 -20 -20 -20 -20 -13 -19 -20 -20 -20 -20 -20 -10 -12 -20 -20 -20 -20 -14 -20 -20 -12 -20 -20 -20 -19 -20 -20 -20 -20 -20 -20 -20 -20 -20 -20 -17 -4 -1 -1 9 34 35 23
24 22 19 6 2 -1 -20 -10 -20 -20 -20 -20 -20 -20 -20 -20 -20 -20 -8 -12 -20 -20 -11 -20 -20 -20 -15 -20 -20 -20 -20 -5 -20 -15 -19 -11 -20 -20 -20 -20 -18 -14 -13 -9 -5 4 22 28 33 28 17 8 -4 -14
32 31 29 26 22 9 4 -7 -20 -20 -20 -20 -20 -20 -20 -20 -20 -20 -18 -20 -20 -20 -20 -20 -20 -20 -20 -20 -13 -20 -20 -13 -16 -19 -14 -5 -15 8 16 -1 -20 -20 -20 -18 2 -7 -1 -5 -1 2 -5 -7 -8 -9
3 3 16 14 17 19 9 5 -3 -19 -20 -20 -20 -20 -20 -20 -20 -20 -20 -20 -18 -20 -20 -20 -20 -20 -20 12 21 11 3 -8 -4 -18 -19 -0 26 19 -20 -18 -19 -20 -20 -20 -20 -20 -14 -4 -1 -1 -6 -18 -20 -20
-20 -20 -10 -20 -18 -8 13 25 23 11 7 4 15 1 -13 -20 -20 -20 -5 -14 -3 -11 -17 -6 0 -4 8 12 -18 2 -20 -19 -20 -20 -20 -17 17 -17 -19 1 -20 -20 -20 -20 -20 -20 -20 -20 -20 -20 -20 -20 -20 -20
-20 -20 -20 -20 -19 -9 -4 11 -1 12 24 14 3 -13 -4 -6 -9 14 19 11 20 12 16 21 -19 -20 -15 -3 -16 -20 -20 -20 -20 -19 8 8 -19 -19 -20 -20 -20 -20 -20 -20 -20 -20 -20 -20 -20 -20 -20 -20 -20 -20
-20 -20 -20 -20 -20 -20 -20 -20 -19 -19 -20 -19 -15 -5 -20 -20 -20 -20 -2 13 5 -0 -19 -20 -20 -20 -20 -20 -20 -20 -20 -20 -20 -20 -20 -20 -20 -20 -20 -20 -20 -20 -20 -20 -20 -20 -20 -20 -20 -20 -20 -20 -20 -20
-16 -20 -20 -20 -20 -20 -20 -20 -20 -20 -20 -20 -20 -20 -19 -17 -8 -4 -15 -16 -19 -20 -20 -20 -20 -20 -20 -20 -20 -20 -20 -20 -20 -20 -20 -18 -20 -20 -20 -20 -20 -20 -20 -20 -20 -20 -20 -20 -20 -20 -20 -20 -20 -20
-20 -20 -20 -20 -20 -20 -20 -20 -20 -20 -20 -19 -15 -15 -9 -14 -16 -20 -20 -20 -20 -20 -20 -20 -20 -20 -20 -20 -20 -20 -20 -20 -20 -20 -17 -20 -20 -20 -20 -20 -20 -20 -20 -20 -20 -20 -20 -20 -20 -20 -20 -20 -20 -20
-20 -20 -20 -20 -20 -20 -20 -20 -20 -20 -20 -17 -20 -7 -1 -6 -12 6 -12 -20 -20 -20 -20 -20 -20 -20 -20 -20 -20 -20 -20 -20 -20 -20 -20 -20 -20 -20 -20 -20 -20 -20 -20 -20 -20 -20 -20 -20 -20 -20 -20 -20 -20 -20
-20 -20 -20 -20 -20 -20 -20 -20 -20 -20 -20 -20 -20 -5 -11 7 5 2 -20 -20 -20 -20 -20 -20 -20 -20 -20 -20 -20 -20 -20 -20 -20 -20 -20 -20 -20 -20 -20 -20 -20 -20 -20 -20 -20 -20 -20 -20 -20 -20 -20 -20 -20 -20
-20 -20 -20 -20 -20 -20 -20 -20 -20 -20 -20 -20 -20 -20 -20 -13 -20 -3 -20 -20 -20 -20 -20 -20 -20 -20 -20 -20 -20 -20 -20 -20 -20 -20 -20 -20 -20 -20 -20 -20 -20 -20 -20 -20 -20 -20 -20 -20 -20 -20 -20 -20 -20 -20
-20 -20 -20 -20 -20 -20 -20 -20 -20 -20 -20 -20 -20 -20 -20 -20 -20 -20 -20 -20 -20 -20 -20 -20 -20 -20 -20 -20 -20 -20 -20 -20 -20 -20 -20 -20 -20 -20 -20 -20 -20 -20 -20 -20 -20 -20 -20 -20 -20 -20 -20 -20 -20 -20
-20 -20 -20 -20 -20 -20 -20 -20 -20 -20 -20 -20 -20 -20 -20 -20 -20 -20 -20 -20 -20 -20 -20 -20 -20 -20 -20 -20 -20 -20 -20 -20 -20 -20 -20 -20 -20 -20 -20 -20 -20 -20 -20 -20 -20 -20 -20 -20 -20 -20 -20 -20 -20 -20
-20 -20 -20 -20 -20 -20 -20 -20 -20 -20 -20 -20 -20 -20 -20 -20 -20 -20 -20 -20 -20 -20 -20 -20 -20 -20 -20 -20 -20 -20 -20 -20 -20 -20 -20 -20 -20 -20 -20 -20 -20 -20 -20 -20 -20 -20 -20 -20 -20 -20 -20 -20 -20 -20
-20 -20 -20 -20 -20 -20 -20 -20 -20 -20 -20 -20 -20 -20 -20 -20 -20 -20 -20 -18 -18 -18 -17 -18 -20 -20 -20 -19 -20 -20 -20 -20 -20 -20 -20 -20 -20 -20 -20 -20 -20 -20 -20 -20 -20 -20 -20 -20 -20 -20 -20 -20 -20 -20
-20 -20 -20 -20 -20 -20 -20 -20 -20 -20 -20 -20 -20 -20 -8 1 -19 -19 -20 -20 -19 -6 -13 -20 -20 -20 -20 -20 -20 -20 -20 -20 -20 -20 -20 -20 -20 -20 -20 -20 -20 -20 -20 -20 -20 -20 -20 -20 -20 -20 -20 -20 -20 -20
-20 -20 -20 -20 -20 -20 -20 -20 -15 -20 -14 -9 -20 -6 9 -4 -13 -20 -20 -17 -17 -17 -20 -20 -20 -20 -20 -20 -20 -20 -20 -20 -20 -20 -20 -20 -20 -20 -20 -20 -20 -20 -20 -20 -20 -20 -20 -20 -20 -20 -20 -20 -20 -20
-20 -20 -20 -20 -20 -20 -20 -14 -4 7 10 11 5 -5 -20 -20 -20 -20 -20 -20 -20 -20 -20 -20 -20 -20 -20 -20 -20 -20 -20 -20 -20 -20 -20 -20 -20 -20 -20 -20 -20 -20 -20 -20 -20 -20 -20 -20 -20 -20 -20 -20 -20 -20
-20 -20 -20 -20 -20 -20 -20 -20 -20 -20 -20 -20 -20 -20 -20 -20 -20 -20 -20 -20 -20 -20 -20 -20 -20 -20 -20 -20 -20 -20 -20 -20 -20 -20 -20 -20 -20 -20 -20 -20 -20 -20 -20 -20 -20 -20 -20 -20 -20 -20 -20 -20 -20 -20
-20 -20 -20 -20 -20 -20 -20 -20 -20 -20 -19 -20 -20 -20 -20 -20 -20 -20 -20 -20 -20 -20 -20 -20 -20 -20 -20 -20 -20 -20 -20 -20 -20 -20 -20 -20 -20 -20 -20 -20 -20 -20 -20 -20 -20 -20 -20 -20 -20 -20 -20 -20 -20 -20
-20 -20 -20 -20 -20 -20 -20 -20 -20 -20 -20 -20 -20 -20 -20 -20 -20 -20 -20 -20 -20 -20 -20 -20 -20 -20 -20 -20 -20 -20 -20 -20 -20 -20 -20 -20 -20 -20 -20 -20 -20 -20 -20 -20 -20 -20 -20 -20 -20 -20 -20 -20 -20 -20
-20 -20 -20 -20 -20 -20 -20 -20 -20 -20 -20 -20 -20 -20 -20 -20 -20 -20 -20 -20 -20 -20 -20 -20 -20 -20 -20 -20 -20 -20 -20 -20 -20 -20 -20 -20 -20 -20 -20 -20 -20 -20 -20 -20 -20 -20 -20 -20 -20 -20 -20 -20 -20 -20